GFSWCAN_prec_pwat_057.txt.gz
Precipitable_Water
0.75 0.62 0.62 0.63 0.66 0.68 0.71 0.73 0.79 0.80 0.77 0.78 0.79 0.81 0.83 0.84 0.84 0.84 0.74 0.85 0.74 0.62 0.62 0.64 0.61 0.53 0.54 0.49 0.41 0.50 0.53 0.54 0.49 0.40 0.38 0.38 0.35 0.37 0.34 0.34 0.32 0.34 0.29 0.29 0.30 0.28 0.21 0.51 0.42 0.30 0.45 0.62 0.66 0.69
0.76 0.62 0.62 0.63 0.67 0.68 0.72 0.71 0.74 0.79 0.76 0.77 0.79 0.81 0.83 0.84 0.82 0.86 0.74 0.81 0.85 0.68 0.63 0.77 0.75 0.71 0.67 0.64 0.54 0.54 0.54 0.54 0.56 0.45 0.45 0.43 0.38 0.41 0.38 0.32 0.39 0.31 0.38 0.31 0.31 0.29 0.46 0.50 0.46 0.59 0.61 0.66 0.64 0.70
0.76 0.62 0.62 0.62 0.67 0.68 0.72 0.71 0.70 0.75 0.78 0.75 0.76 0.79 0.79 0.80 0.79 0.80 0.77 0.79 0.78 0.68 0.72 0.74 0.71 0.76 0.77 0.73 0.72 0.49 0.55 0.61 0.61 0.65 0.53 0.47 0.38 0.45 0.35 0.36 0.37 0.45 0.47 0.37 0.38 0.44 0.49 0.52 0.59 0.64 0.66 0.66 0.78 0.75
0.74 0.63 0.61 0.61 0.65 0.68 0.71 0.71 0.68 0.72 0.77 0.77 0.75 0.76 0.78 0.79 0.79 0.81 0.80 0.82 0.77 0.68 0.60 0.69 0.84 0.78 0.82 0.75 0.71 0.67 0.60 0.65 0.67 0.64 0.54 0.48 0.42 0.51 0.42 0.44 0.41 0.47 0.49 0.43 0.44 0.51 0.53 0.59 0.65 0.68 0.71 0.77 0.79 0.80
0.72 0.62 0.61 0.61 0.64 0.68 0.69 0.70 0.68 0.72 0.77 0.78 0.80 0.77 0.78 0.80 0.82 0.86 0.88 0.87 0.86 0.67 0.54 0.59 0.72 0.73 0.74 0.74 0.68 0.70 0.63 0.62 0.55 0.49 0.49 0.47 0.53 0.50 0.51 0.50 0.43 0.51 0.47 0.42 0.41 0.55 0.55 0.58 0.67 0.72 0.72 0.75 0.79 0.81
0.71 0.62 0.60 0.62 0.65 0.66 0.68 0.71 0.70 0.73 0.76 0.80 0.81 0.83 0.84 0.86 0.89 0.83 0.65 0.86 0.90 0.83 0.59 0.51 0.74 0.65 0.72 0.70 0.69 0.69 0.67 0.59 0.55 0.41 0.41 0.45 0.50 0.52 0.43 0.41 0.53 0.53 0.59 0.61 0.54 0.64 0.65 0.68 0.71 0.74 0.74 0.79 0.85 0.87
0.69 0.62 0.60 0.60 0.64 0.66 0.68 0.69 0.71 0.74 0.77 0.79 0.83 0.86 0.87 0.88 0.87 0.72 0.66 0.78 0.87 0.86 0.58 0.50 0.60 0.71 0.70 0.68 0.69 0.68 0.67 0.61 0.53 0.45 0.44 0.45 0.47 0.46 0.39 0.38 0.48 0.46 0.52 0.62 0.66 0.66 0.61 0.66 0.64 0.73 0.77 0.81 0.86 0.89
0.67 0.63 0.60 0.59 0.61 0.65 0.68 0.68 0.71 0.72 0.76 0.79 0.80 0.83 0.87 0.90 0.86 0.74 0.85 0.88 0.86 0.69 0.63 0.48 0.52 0.65 0.71 0.60 0.53 0.65 0.59 0.64 0.57 0.52 0.46 0.40 0.41 0.38 0.30 0.45 0.50 0.45 0.43 0.45 0.51 0.66 0.65 0.70 0.71 0.72 0.77 0.79 0.78 0.82
0.68 0.63 0.58 0.58 0.62 0.65 0.68 0.69 0.71 0.70 0.74 0.78 0.78 0.81 0.82 0.78 0.69 0.75 0.89 0.84 0.81 0.66 0.49 0.48 0.43 0.45 0.68 0.67 0.64 0.59 0.57 0.48 0.56 0.48 0.44 0.43 0.35 0.28 0.38 0.42 0.48 0.45 0.40 0.41 0.45 0.46 0.58 0.63 0.67 0.70 0.72 0.74 0.76 0.79
0.69 0.60 0.57 0.57 0.63 0.67 0.70 0.71 0.74 0.72 0.73 0.75 0.74 0.66 0.59 0.76 0.92 0.88 0.72 0.57 0.57 0.58 0.59 0.44 0.52 0.47 0.63 0.64 0.63 0.57 0.53 0.46 0.41 0.45 0.50 0.46 0.39 0.46 0.45 0.47 0.52 0.55 0.48 0.43 0.39 0.39 0.41 0.46 0.58 0.66 0.69 0.74 0.77 0.78
0.68 0.58 0.56 0.58 0.61 0.64 0.69 0.72 0.75 0.73 0.70 0.67 0.64 0.66 0.81 0.88 0.76 0.65 0.53 0.52 0.57 0.47 0.58 0.55 0.53 0.49 0.64 0.52 0.53 0.62 0.55 0.50 0.35 0.41 0.39 0.39 0.38 0.45 0.46 0.46 0.49 0.57 0.56 0.51 0.48 0.46 0.47 0.45 0.46 0.51 0.66 0.72 0.77 0.78
0.66 0.57 0.56 0.58 0.58 0.60 0.64 0.75 0.74 0.70 0.71 0.69 0.68 0.76 0.80 0.66 0.61 0.53 0.51 0.54 0.56 0.52 0.55 0.51 0.48 0.52 0.60 0.69 0.56 0.59 0.53 0.55 0.38 0.48 0.40 0.29 0.49 0.51 0.48 0.45 0.48 0.52 0.55 0.57 0.53 0.50 0.49 0.48 0.48 0.48 0.48 0.61 0.70 0.76
0.64 0.57 0.58 0.59 0.61 0.60 0.61 0.70 0.73 0.71 0.74 0.74 0.67 0.64 0.63 0.59 0.42 0.47 0.44 0.50 0.54 0.57 0.55 0.54 0.51 0.58 0.73 0.71 0.59 0.57 0.49 0.49 0.59 0.40 0.37 0.42 0.56 0.52 0.50 0.49 0.46 0.48 0.50 0.55 0.56 0.54 0.52 0.50 0.50 0.48 0.49 0.49 0.52 0.66
0.62 0.58 0.59 0.66 0.62 0.62 0.64 0.65 0.70 0.67 0.65 0.59 0.55 0.45 0.46 0.46 0.54 0.50 0.52 0.54 0.60 0.64 0.67 0.65 0.64 0.58 0.73 0.62 0.60 0.51 0.57 0.52 0.41 0.40 0.35 0.53 0.60 0.56 0.55 0.53 0.52 0.50 0.48 0.48 0.53 0.55 0.52 0.49 0.47 0.48 0.49 0.51 0.52 0.50
0.60 0.57 0.60 0.69 0.66 0.66 0.62 0.60 0.64 0.65 0.62 0.55 0.55 0.40 0.48 0.54 0.55 0.66 0.70 0.77 0.75 0.75 0.68 0.65 0.64 0.62 0.63 0.64 0.58 0.51 0.42 0.36 0.39 0.41 0.52 0.58 0.56 0.54 0.61 0.64 0.58 0.56 0.50 0.49 0.48 0.49 0.50 0.48 0.46 0.45 0.45 0.48 0.50 0.50
0.59 0.57 0.67 0.69 0.62 0.59 0.63 0.67 0.63 0.66 0.62 0.57 0.55 0.53 0.57 0.55 0.59 0.65 0.69 0.66 0.73 0.69 0.70 0.65 0.55 0.51 0.49 0.52 0.49 0.43 0.40 0.37 0.45 0.50 0.52 0.57 0.59 0.57 0.54 0.51 0.49 0.50 0.55 0.48 0.49 0.48 0.49 0.48 0.45 0.43 0.45 0.45 0.46 0.48
0.59 0.61 0.66 0.60 0.60 0.67 0.71 0.66 0.63 0.56 0.57 0.59 0.59 0.63 0.64 0.71 0.66 0.75 0.71 0.72 0.76 0.66 0.51 0.53 0.44 0.40 0.49 0.43 0.41 0.48 0.43 0.48 0.51 0.52 0.52 0.52 0.50 0.47 0.46 0.43 0.43 0.45 0.53 0.51 0.54 0.49 0.45 0.48 0.44 0.42 0.40 0.42 0.43 0.46
0.58 0.63 0.61 0.63 0.67 0.69 0.64 0.58 0.57 0.58 0.59 0.68 0.61 0.63 0.71 0.76 0.72 0.73 0.72 0.64 0.56 0.52 0.53 0.47 0.52 0.43 0.40 0.37 0.40 0.47 0.47 0.49 0.46 0.47 0.48 0.49 0.49 0.48 0.45 0.43 0.43 0.45 0.51 0.55 0.51 0.49 0.50 0.45 0.41 0.38 0.39 0.40 0.42 0.41
0.56 0.57 0.65 0.72 0.67 0.63 0.56 0.62 0.64 0.60 0.64 0.68 0.68 0.70 0.73 0.74 0.83 0.71 0.64 0.63 0.67 0.65 0.61 0.50 0.42 0.38 0.40 0.46 0.46 0.48 0.46 0.47 0.46 0.49 0.51 0.54 0.55 0.51 0.47 0.48 0.46 0.45 0.47 0.52 0.56 0.48 0.51 0.44 0.36 0.37 0.38 0.38 0.37 0.38
0.62 0.73 0.79 0.80 0.73 0.62 0.54 0.62 0.81 0.69 0.65 0.64 0.71 0.65 0.71 0.70 0.69 0.71 0.67 0.63 0.60 0.56 0.47 0.44 0.43 0.48 0.51 0.56 0.57 0.55 0.57 0.56 0.50 0.46 0.53 0.58 0.57 0.47 0.46 0.45 0.41 0.39 0.40 0.52 0.49 0.42 0.48 0.46 0.47 0.42 0.38 0.38 0.37 0.37
0.74 0.81 0.78 0.76 0.66 0.61 0.57 0.62 0.72 0.72 0.67 0.64 0.73 0.68 0.65 0.70 0.62 0.59 0.58 0.67 0.54 0.48 0.45 0.50 0.56 0.62 0.65 0.68 0.68 0.67 0.66 0.65 0.59 0.53 0.55 0.57 0.49 0.47 0.45 0.44 0.44 0.41 0.43 0.49 0.46 0.47 0.42 0.47 0.49 0.48 0.43 0.40 0.41 0.40
0.78 0.80 0.79 0.76 0.62 0.70 0.66 0.78 0.73 0.80 0.73 0.70 0.69 0.68 0.61 0.57 0.54 0.54 0.67 0.54 0.51 0.53 0.52 0.57 0.62 0.66 0.66 0.61 0.56 0.60 0.63 0.69 0.70 0.67 0.64 0.56 0.46 0.43 0.44 0.42 0.42 0.43 0.48 0.47 0.47 0.44 0.47 0.49 0.50 0.48 0.45 0.45 0.45 0.40
0.75 0.77 0.74 0.69 0.62 0.64 0.60 0.81 0.69 0.72 0.62 0.63 0.66 0.61 0.57 0.56 0.58 0.67 0.61 0.57 0.55 0.61 0.62 0.64 0.65 0.66 0.58 0.63 0.64 0.70 0.62 0.56 0.58 0.60 0.56 0.48 0.47 0.42 0.42 0.43 0.41 0.40 0.42 0.43 0.42 0.43 0.46 0.45 0.43 0.43 0.47 0.49 0.47 0.48
0.73 0.65 0.57 0.58 0.65 0.59 0.75 0.71 0.75 0.69 0.67 0.64 0.58 0.54 0.53 0.51 0.62 0.55 0.46 0.47 0.51 0.57 0.58 0.59 0.57 0.54 0.56 0.53 0.47 0.51 0.48 0.51 0.60 0.57 0.57 0.52 0.49 0.47 0.48 0.43 0.43 0.45 0.46 0.46 0.46 0.52 0.51 0.45 0.41 0.47 0.48 0.47 0.43 0.46
0.45 0.41 0.50 0.44 0.65 0.64 0.63 0.65 0.66 0.63 0.58 0.58 0.53 0.50 0.51 0.60 0.50 0.45 0.39 0.40 0.44 0.48 0.50 0.55 0.52 0.53 0.45 0.39 0.37 0.39 0.44 0.40 0.41 0.48 0.52 0.51 0.47 0.53 0.50 0.45 0.46 0.46 0.45 0.43 0.45 0.47 0.43 0.44 0.47 0.48 0.50 0.43 0.44 0.45
0.34 0.44 0.41 0.47 0.53 0.59 0.65 0.59 0.62 0.57 0.57 0.52 0.54 0.59 0.63 0.54 0.46 0.41 0.43 0.42 0.42 0.44 0.44 0.44 0.40 0.35 0.33 0.32 0.29 0.31 0.32 0.35 0.39 0.45 0.47 0.47 0.46 0.41 0.42 0.45 0.46 0.43 0.43 0.44 0.44 0.45 0.51 0.52 0.43 0.42 0.43 0.42 0.38 0.45
0.32 0.43 0.54 0.64 0.65 0.66 0.66 0.68 0.64 0.58 0.55 0.51 0.55 0.57 0.52 0.43 0.45 0.52 0.56 0.52 0.44 0.40 0.37 0.33 0.32 0.30 0.29 0.28 0.31 0.35 0.37 0.39 0.38 0.39 0.47 0.46 0.44 0.42 0.45 0.42 0.42 0.39 0.41 0.42 0.42 0.42 0.42 0.41 0.47 0.43 0.43 0.42 0.43 0.46
0.44 0.53 0.51 0.60 0.61 0.67 0.61 0.61 0.57 0.58 0.58 0.59 0.62 0.54 0.47 0.45 0.47 0.59 0.57 0.57 0.50 0.41 0.32 0.31 0.32 0.32 0.29 0.27 0.27 0.31 0.37 0.42 0.44 0.43 0.43 0.42 0.40 0.39 0.42 0.42 0.40 0.38 0.38 0.40 0.43 0.43 0.50 0.47 0.40 0.43 0.43 0.42 0.43 0.46
0.46 0.52 0.58 0.59 0.64 0.67 0.62 0.59 0.63 0.67 0.65 0.64 0.61 0.59 0.59 0.65 0.66 0.65 0.63 0.59 0.52 0.41 0.31 0.30 0.31 0.33 0.30 0.28 0.26 0.26 0.26 0.30 0.36 0.38 0.38 0.34 0.36 0.38 0.42 0.43 0.44 0.42 0.39 0.36 0.38 0.41 0.43 0.45 0.42 0.43 0.45 0.46 0.45 0.45
0.52 0.64 0.61 0.62 0.58 0.61 0.72 0.67 0.67 0.70 0.69 0.69 0.70 0.66 0.64 0.66 0.71 0.73 0.69 0.59 0.52 0.41 0.32 0.28 0.28 0.27 0.25 0.25 0.25 0.26 0.28 0.28 0.29 0.31 0.32 0.33 0.35 0.41 0.43 0.42 0.43 0.43 0.42 0.40 0.40 0.40 0.41 0.43 0.43 0.44 0.43 0.42 0.43 0.44
0.60 0.61 0.60 0.62 0.63 0.71 0.67 0.71 0.73 0.70 0.70 0.67 0.70 0.66 0.66 0.68 0.66 0.67 0.66 0.64 0.54 0.45 0.31 0.28 0.26 0.25 0.24 0.23 0.24 0.25 0.27 0.31 0.35 0.36 0.36 0.37 0.39 0.42 0.43 0.43 0.44 0.44 0.44 0.43 0.41 0.41 0.42 0.42 0.40 0.40 0.41 0.40 0.40 0.41
0.59 0.59 0.58 0.53 0.68 0.71 0.68 0.66 0.72 0.70 0.70 0.65 0.65 0.68 0.68 0.62 0.56 0.59 0.65 0.63 0.52 0.43 0.35 0.28 0.26 0.24 0.24 0.24 0.24 0.25 0.29 0.34 0.37 0.39 0.40 0.40 0.40 0.41 0.42 0.42 0.43 0.43 0.43 0.42 0.42 0.42 0.41 0.42 0.41 0.41 0.42 0.42 0.42 0.42
0.63 0.69 0.66 0.61 0.56 0.56 0.67 0.67 0.67 0.62 0.62 0.60 0.63 0.68 0.69 0.67 0.64 0.69 0.71 0.68 0.58 0.47 0.38 0.31 0.28 0.27 0.27 0.27 0.26 0.27 0.29 0.32 0.33 0.33 0.35 0.37 0.38 0.40 0.41 0.41 0.41 0.41 0.43 0.43 0.42 0.42 0.42 0.42 0.41 0.41 0.42 0.42 0.42 0.42

GFSWCAN_prec_pwat_060.txt.gz
Precipitable_Water
1.16 0.89 0.66 0.65 0.63 0.68 0.70 0.72 0.72 0.76 0.72 0.73 0.74 0.75 0.77 0.76 0.80 0.82 0.74 0.80 0.74 0.64 0.60 0.65 0.63 0.54 0.53 0.50 0.40 0.45 0.47 0.52 0.48 0.39 0.37 0.36 0.34 0.37 0.33 0.36 0.33 0.33 0.34 0.34 0.32 0.26 0.22 0.49 0.44 0.39 0.50 0.55 0.52 0.49
1.17 0.92 0.67 0.65 0.63 0.68 0.69 0.72 0.69 0.74 0.71 0.72 0.75 0.76 0.76 0.75 0.78 0.83 0.75 0.84 0.83 0.69 0.69 0.83 0.79 0.70 0.65 0.59 0.51 0.51 0.47 0.48 0.52 0.44 0.43 0.42 0.37 0.40 0.37 0.29 0.42 0.36 0.42 0.38 0.32 0.33 0.49 0.57 0.53 0.57 0.57 0.50 0.47 0.45
1.19 0.91 0.67 0.65 0.62 0.67 0.68 0.71 0.67 0.71 0.75 0.71 0.72 0.74 0.74 0.73 0.72 0.73 0.77 0.83 0.75 0.65 0.71 0.68 0.60 0.75 0.75 0.67 0.67 0.49 0.55 0.57 0.57 0.62 0.51 0.46 0.38 0.45 0.34 0.36 0.39 0.44 0.49 0.40 0.40 0.49 0.52 0.55 0.56 0.55 0.53 0.49 0.50 0.52
1.18 0.88 0.67 0.64 0.62 0.65 0.68 0.71 0.68 0.71 0.75 0.75 0.74 0.73 0.73 0.75 0.74 0.75 0.75 0.85 0.77 0.67 0.54 0.61 0.76 0.65 0.79 0.73 0.67 0.67 0.58 0.62 0.65 0.57 0.50 0.47 0.43 0.53 0.43 0.45 0.42 0.47 0.48 0.43 0.41 0.47 0.47 0.52 0.54 0.53 0.51 0.53 0.55 0.60
1.13 0.83 0.66 0.64 0.62 0.64 0.68 0.69 0.70 0.72 0.74 0.76 0.76 0.77 0.76 0.77 0.79 0.83 0.86 0.86 0.86 0.67 0.49 0.55 0.74 0.72 0.71 0.68 0.69 0.66 0.63 0.59 0.60 0.54 0.48 0.38 0.44 0.48 0.51 0.50 0.44 0.52 0.46 0.42 0.40 0.54 0.53 0.55 0.64 0.68 0.64 0.65 0.70 0.71
1.05 0.81 0.64 0.63 0.62 0.64 0.67 0.68 0.71 0.74 0.75 0.78 0.79 0.81 0.82 0.84 0.86 0.84 0.68 0.85 0.87 0.82 0.59 0.47 0.75 0.71 0.71 0.69 0.65 0.66 0.69 0.64 0.59 0.54 0.47 0.46 0.52 0.43 0.37 0.38 0.50 0.54 0.55 0.58 0.52 0.61 0.62 0.64 0.67 0.70 0.68 0.71 0.76 0.75
0.97 0.77 0.64 0.63 0.60 0.63 0.66 0.69 0.69 0.72 0.75 0.78 0.81 0.82 0.84 0.86 0.85 0.72 0.67 0.81 0.88 0.83 0.58 0.47 0.59 0.75 0.76 0.74 0.70 0.65 0.69 0.65 0.58 0.57 0.47 0.47 0.47 0.45 0.43 0.33 0.47 0.47 0.47 0.53 0.60 0.60 0.58 0.64 0.61 0.69 0.71 0.73 0.77 0.79
0.92 0.72 0.65 0.62 0.59 0.62 0.65 0.68 0.69 0.70 0.73 0.76 0.78 0.78 0.80 0.84 0.84 0.74 0.87 0.89 0.88 0.69 0.62 0.45 0.49 0.67 0.81 0.65 0.64 0.72 0.60 0.65 0.62 0.53 0.56 0.46 0.43 0.44 0.27 0.47 0.56 0.51 0.47 0.48 0.50 0.52 0.59 0.67 0.68 0.68 0.71 0.72 0.71 0.72
0.88 0.70 0.65 0.60 0.59 0.64 0.67 0.69 0.70 0.73 0.70 0.72 0.75 0.76 0.76 0.75 0.67 0.75 0.91 0.88 0.82 0.66 0.47 0.48 0.39 0.44 0.73 0.67 0.72 0.68 0.68 0.51 0.64 0.49 0.50 0.50 0.43 0.29 0.35 0.41 0.52 0.54 0.48 0.43 0.48 0.47 0.48 0.52 0.63 0.66 0.68 0.69 0.69 0.71
0.81 0.70 0.62 0.58 0.58 0.64 0.67 0.70 0.72 0.75 0.73 0.73 0.73 0.68 0.59 0.74 0.91 0.86 0.72 0.61 0.61 0.64 0.61 0.42 0.50 0.45 0.63 0.65 0.70 0.60 0.64 0.55 0.48 0.52 0.52 0.50 0.44 0.53 0.51 0.48 0.48 0.53 0.56 0.54 0.47 0.44 0.44 0.43 0.47 0.57 0.64 0.68 0.71 0.73
0.75 0.70 0.59 0.56 0.58 0.61 0.64 0.70 0.73 0.75 0.78 0.74 0.71 0.69 0.84 0.92 0.73 0.64 0.57 0.61 0.70 0.64 0.68 0.67 0.65 0.59 0.67 0.55 0.55 0.61 0.56 0.57 0.48 0.52 0.45 0.46 0.46 0.51 0.53 0.50 0.52 0.56 0.53 0.55 0.56 0.54 0.53 0.48 0.46 0.50 0.54 0.64 0.70 0.72
0.74 0.67 0.57 0.57 0.58 0.59 0.60 0.63 0.74 0.70 0.74 0.75 0.69 0.71 0.80 0.68 0.59 0.56 0.58 0.62 0.58 0.56 0.66 0.61 0.66 0.71 0.71 0.89 0.66 0.67 0.55 0.57 0.46 0.61 0.48 0.40 0.49 0.60 0.56 0.50 0.53 0.56 0.58 0.58 0.57 0.54 0.55 0.55 0.52 0.52 0.53 0.54 0.63 0.73
0.75 0.65 0.57 0.58 0.62 0.63 0.62 0.62 0.69 0.73 0.69 0.75 0.76 0.65 0.66 0.63 0.54 0.52 0.50 0.57 0.66 0.71 0.79 0.72 0.59 0.59 0.66 0.69 0.66 0.65 0.53 0.51 0.65 0.50 0.41 0.45 0.60 0.65 0.61 0.54 0.54 0.58 0.59 0.59 0.59 0.58 0.56 0.56 0.55 0.53 0.52 0.57 0.55 0.56
0.73 0.63 0.57 0.59 0.66 0.65 0.67 0.66 0.66 0.68 0.59 0.62 0.62 0.49 0.47 0.50 0.59 0.60 0.60 0.62 0.75 0.75 0.76 0.67 0.63 0.58 0.61 0.58 0.61 0.53 0.57 0.57 0.44 0.40 0.39 0.60 0.64 0.66 0.61 0.60 0.59 0.58 0.56 0.57 0.54 0.56 0.54 0.51 0.53 0.48 0.47 0.55 0.55 0.54
0.70 0.60 0.57 0.60 0.68 0.67 0.63 0.61 0.64 0.65 0.58 0.56 0.59 0.44 0.50 0.62 0.67 0.68 0.83 0.85 0.81 0.70 0.62 0.55 0.54 0.56 0.52 0.50 0.51 0.52 0.45 0.39 0.43 0.42 0.52 0.62 0.68 0.63 0.62 0.62 0.58 0.56 0.53 0.54 0.52 0.51 0.52 0.50 0.47 0.47 0.45 0.48 0.49 0.51
0.66 0.59 0.64 0.70 0.69 0.63 0.63 0.67 0.66 0.67 0.63 0.58 0.60 0.54 0.62 0.60 0.65 0.68 0.63 0.72 0.70 0.61 0.58 0.58 0.50 0.48 0.44 0.46 0.44 0.41 0.39 0.37 0.44 0.48 0.52 0.60 0.61 0.56 0.52 0.48 0.45 0.46 0.51 0.53 0.59 0.51 0.53 0.49 0.43 0.44 0.44 0.44 0.45 0.47
0.63 0.64 0.72 0.66 0.62 0.67 0.71 0.70 0.70 0.58 0.57 0.64 0.64 0.73 0.75 0.73 0.65 0.68 0.59 0.52 0.55 0.54 0.47 0.49 0.41 0.41 0.49 0.41 0.40 0.46 0.39 0.44 0.50 0.51 0.52 0.57 0.54 0.51 0.49 0.50 0.49 0.46 0.51 0.54 0.61 0.55 0.54 0.46 0.46 0.47 0.42 0.44 0.49 0.51
0.65 0.68 0.65 0.62 0.65 0.73 0.67 0.59 0.60 0.60 0.61 0.67 0.65 0.69 0.71 0.86 0.65 0.58 0.59 0.61 0.56 0.50 0.48 0.41 0.48 0.40 0.37 0.36 0.40 0.48 0.50 0.48 0.50 0.50 0.52 0.55 0.55 0.53 0.51 0.48 0.50 0.48 0.47 0.56 0.53 0.57 0.53 0.52 0.47 0.42 0.42 0.43 0.44 0.48
0.57 0.57 0.60 0.69 0.69 0.64 0.66 0.66 0.64 0.63 0.70 0.80 0.72 0.74 0.72 0.65 0.69 0.66 0.68 0.74 0.72 0.67 0.60 0.50 0.45 0.42 0.42 0.49 0.49 0.49 0.49 0.51 0.51 0.51 0.51 0.58 0.63 0.66 0.56 0.55 0.49 0.49 0.51 0.54 0.52 0.51 0.61 0.51 0.43 0.39 0.39 0.37 0.42 0.40
0.59 0.66 0.75 0.80 0.73 0.65 0.61 0.63 0.80 0.70 0.67 0.68 0.74 0.68 0.66 0.71 0.86 0.72 0.71 0.65 0.63 0.55 0.46 0.44 0.47 0.52 0.50 0.54 0.56 0.56 0.61 0.62 0.60 0.59 0.57 0.66 0.59 0.65 0.59 0.54 0.48 0.46 0.46 0.48 0.57 0.58 0.54 0.48 0.46 0.44 0.40 0.39 0.40 0.41
0.74 0.83 0.80 0.78 0.69 0.63 0.61 0.62 0.73 0.83 0.80 0.63 0.74 0.81 0.66 0.66 0.62 0.62 0.61 0.61 0.47 0.44 0.47 0.54 0.54 0.59 0.65 0.66 0.68 0.66 0.62 0.63 0.57 0.62 0.58 0.61 0.58 0.57 0.54 0.49 0.46 0.56 0.49 0.62 0.57 0.57 0.49 0.52 0.46 0.49 0.50 0.48 0.43 0.41
0.87 0.84 0.77 0.80 0.63 0.73 0.63 0.68 0.73 0.80 0.74 0.79 0.84 0.75 0.64 0.56 0.61 0.57 0.72 0.57 0.45 0.44 0.52 0.52 0.53 0.48 0.52 0.57 0.66 0.66 0.55 0.62 0.58 0.62 0.66 0.62 0.52 0.47 0.44 0.48 0.41 0.41 0.42 0.46 0.50 0.56 0.60 0.52 0.46 0.53 0.55 0.49 0.47 0.43
0.75 0.75 0.76 0.76 0.63 0.65 0.58 0.81 0.68 0.70 0.59 0.64 0.75 0.59 0.59 0.52 0.64 0.70 0.53 0.48 0.54 0.59 0.61 0.61 0.54 0.60 0.65 0.64 0.64 0.63 0.58 0.55 0.53 0.51 0.58 0.57 0.56 0.48 0.52 0.55 0.48 0.44 0.41 0.44 0.53 0.60 0.52 0.46 0.45 0.43 0.47 0.46 0.49 0.51
0.80 0.62 0.64 0.60 0.59 0.59 0.75 0.69 0.75 0.63 0.70 0.78 0.57 0.49 0.57 0.54 0.69 0.53 0.42 0.43 0.47 0.55 0.52 0.49 0.52 0.53 0.51 0.49 0.44 0.47 0.43 0.41 0.54 0.54 0.59 0.56 0.55 0.50 0.48 0.51 0.48 0.46 0.43 0.43 0.48 0.48 0.47 0.51 0.49 0.47 0.48 0.45 0.46 0.43
0.46 0.41 0.49 0.44 0.69 0.65 0.66 0.66 0.73 0.66 0.57 0.63 0.51 0.50 0.49 0.56 0.51 0.49 0.42 0.39 0.40 0.43 0.43 0.47 0.46 0.41 0.37 0.33 0.32 0.34 0.36 0.34 0.36 0.48 0.52 0.49 0.48 0.48 0.50 0.51 0.51 0.42 0.42 0.40 0.42 0.50 0.56 0.59 0.57 0.43 0.43 0.39 0.40 0.42
0.36 0.42 0.41 0.49 0.52 0.57 0.69 0.62 0.58 0.65 0.55 0.48 0.57 0.77 0.59 0.55 0.50 0.47 0.50 0.46 0.40 0.35 0.34 0.32 0.30 0.30 0.30 0.30 0.30 0.32 0.35 0.40 0.47 0.43 0.43 0.42 0.39 0.40 0.41 0.42 0.41 0.40 0.41 0.42 0.46 0.48 0.41 0.43 0.54 0.44 0.39 0.39 0.39 0.46
0.31 0.41 0.50 0.58 0.65 0.64 0.66 0.75 0.64 0.50 0.49 0.52 0.57 0.66 0.58 0.47 0.45 0.58 0.63 0.59 0.49 0.39 0.32 0.29 0.29 0.28 0.25 0.27 0.33 0.38 0.40 0.41 0.42 0.41 0.40 0.40 0.42 0.41 0.42 0.41 0.38 0.38 0.43 0.43 0.53 0.56 0.47 0.47 0.45 0.46 0.44 0.43 0.44 0.46
0.41 0.53 0.52 0.57 0.56 0.63 0.61 0.61 0.51 0.55 0.60 0.67 0.62 0.60 0.59 0.46 0.46 0.60 0.65 0.64 0.53 0.36 0.32 0.31 0.31 0.30 0.27 0.24 0.26 0.30 0.38 0.43 0.45 0.47 0.42 0.40 0.40 0.41 0.41 0.37 0.33 0.34 0.35 0.40 0.44 0.44 0.45 0.49 0.48 0.43 0.42 0.42 0.45 0.44
0.41 0.51 0.58 0.62 0.65 0.62 0.58 0.55 0.66 0.82 0.69 0.53 0.58 0.61 0.60 0.63 0.64 0.65 0.67 0.66 0.57 0.42 0.33 0.30 0.31 0.33 0.30 0.28 0.25 0.26 0.27 0.32 0.40 0.39 0.39 0.35 0.36 0.37 0.41 0.42 0.43 0.42 0.39 0.35 0.31 0.34 0.39 0.37 0.37 0.42 0.44 0.44 0.44 0.45
0.43 0.58 0.57 0.56 0.55 0.73 0.76 0.74 0.76 0.77 0.60 0.57 0.61 0.65 0.69 0.63 0.69 0.76 0.71 0.66 0.60 0.48 0.37 0.28 0.27 0.26 0.25 0.25 0.25 0.26 0.28 0.29 0.31 0.34 0.34 0.34 0.36 0.40 0.41 0.42 0.42 0.41 0.41 0.42 0.42 0.41 0.42 0.44 0.44 0.45 0.44 0.44 0.44 0.45
0.58 0.60 0.55 0.56 0.61 0.83 0.95 0.86 0.72 0.66 0.66 0.65 0.68 0.62 0.71 0.71 0.74 0.74 0.73 0.72 0.68 0.54 0.34 0.30 0.27 0.24 0.23 0.23 0.25 0.26 0.27 0.32 0.34 0.34 0.36 0.38 0.41 0.40 0.40 0.42 0.43 0.44 0.44 0.43 0.41 0.43 0.44 0.43 0.42 0.42 0.43 0.42 0.41 0.44
0.53 0.53 0.54 0.54 0.64 0.80 0.76 0.62 0.63 0.66 0.92 0.81 0.63 0.71 0.69 0.64 0.60 0.68 0.75 0.72 0.65 0.56 0.41 0.33 0.27 0.25 0.23 0.23 0.25 0.28 0.30 0.34 0.38 0.38 0.40 0.39 0.39 0.40 0.41 0.42 0.43 0.43 0.43 0.42 0.42 0.41 0.42 0.41 0.41 0.40 0.42 0.42 0.41 0.44
0.52 0.58 0.56 0.62 0.71 0.72 0.73 0.69 0.57 0.57 0.57 0.59 0.66 0.68 0.67 0.67 0.67 0.73 0.77 0.74 0.68 0.63 0.50 0.37 0.31 0.27 0.27 0.26 0.27 0.28 0.34 0.34 0.34 0.35 0.37 0.38 0.38 0.38 0.41 0.41 0.41 0.41 0.43 0.43 0.42 0.42 0.42 0.42 0.42 0.43 0.43 0.44 0.44 0.44

GFSWCAN_prec_pwat_063.txt.gz
Precipitable_Water
1.50 1.34 1.08 0.76 0.68 0.66 0.68 0.70 0.68 0.69 0.69 0.70 0.70 0.72 0.73 0.76 0.80 0.79 0.77 0.79 0.64 0.58 0.62 0.70 0.62 0.50 0.50 0.45 0.37 0.42 0.44 0.43 0.41 0.35 0.33 0.33 0.32 0.35 0.33 0.35 0.35 0.35 0.33 0.32 0.32 0.31 0.25 0.51 0.46 0.37 0.48 0.55 0.55 0.55
1.53 1.37 1.10 0.78 0.68 0.65 0.67 0.70 0.67 0.65 0.73 0.68 0.71 0.73 0.72 0.72 0.71 0.73 0.69 0.84 0.81 0.65 0.64 0.74 0.69 0.69 0.61 0.55 0.49 0.49 0.43 0.43 0.42 0.39 0.40 0.39 0.34 0.38 0.36 0.28 0.41 0.35 0.40 0.36 0.41 0.39 0.54 0.59 0.54 0.59 0.57 0.52 0.52 0.52
1.52 1.36 1.07 0.76 0.67 0.65 0.66 0.68 0.67 0.66 0.73 0.72 0.69 0.71 0.72 0.72 0.71 0.69 0.71 0.80 0.74 0.58 0.61 0.65 0.57 0.64 0.72 0.67 0.65 0.48 0.49 0.52 0.49 0.51 0.43 0.40 0.35 0.44 0.33 0.34 0.38 0.43 0.49 0.40 0.39 0.47 0.50 0.51 0.59 0.60 0.56 0.53 0.52 0.52
1.49 1.33 1.02 0.73 0.68 0.64 0.66 0.68 0.68 0.67 0.71 0.74 0.73 0.72 0.72 0.72 0.74 0.73 0.67 0.78 0.74 0.62 0.46 0.53 0.74 0.65 0.71 0.66 0.66 0.64 0.58 0.61 0.61 0.57 0.46 0.39 0.33 0.46 0.39 0.42 0.40 0.43 0.45 0.41 0.42 0.48 0.47 0.51 0.55 0.56 0.55 0.54 0.53 0.54
1.44 1.26 0.94 0.71 0.67 0.65 0.64 0.67 0.67 0.69 0.71 0.74 0.75 0.75 0.76 0.77 0.77 0.81 0.86 0.84 0.83 0.62 0.44 0.45 0.66 0.72 0.74 0.72 0.64 0.66 0.62 0.61 0.57 0.54 0.49 0.40 0.43 0.39 0.41 0.41 0.39 0.45 0.42 0.36 0.37 0.49 0.53 0.54 0.62 0.66 0.62 0.61 0.61 0.57
1.40 1.16 0.88 0.69 0.66 0.65 0.65 0.66 0.67 0.67 0.71 0.74 0.77 0.79 0.79 0.80 0.83 0.80 0.67 0.80 0.84 0.80 0.55 0.38 0.62 0.69 0.73 0.73 0.68 0.64 0.62 0.63 0.62 0.60 0.52 0.50 0.51 0.41 0.34 0.31 0.40 0.47 0.47 0.46 0.43 0.51 0.57 0.62 0.64 0.66 0.63 0.66 0.68 0.68
1.32 1.06 0.84 0.67 0.66 0.62 0.62 0.65 0.66 0.66 0.69 0.72 0.75 0.77 0.77 0.79 0.78 0.68 0.64 0.80 0.89 0.83 0.57 0.42 0.45 0.63 0.76 0.71 0.70 0.68 0.70 0.61 0.65 0.61 0.53 0.51 0.48 0.45 0.38 0.28 0.40 0.51 0.48 0.51 0.50 0.48 0.44 0.55 0.58 0.67 0.68 0.69 0.71 0.73
1.24 0.96 0.79 0.66 0.65 0.61 0.62 0.65 0.66 0.67 0.69 0.68 0.71 0.73 0.73 0.76 0.76 0.67 0.81 0.89 0.91 0.74 0.65 0.42 0.42 0.56 0.73 0.63 0.61 0.74 0.65 0.70 0.66 0.62 0.58 0.55 0.56 0.51 0.33 0.34 0.46 0.50 0.51 0.49 0.51 0.53 0.49 0.52 0.56 0.65 0.69 0.69 0.67 0.67
1.09 0.89 0.74 0.66 0.62 0.61 0.64 0.66 0.68 0.69 0.72 0.69 0.70 0.74 0.75 0.71 0.64 0.72 0.89 0.89 0.89 0.73 0.54 0.51 0.38 0.42 0.73 0.68 0.78 0.72 0.73 0.56 0.69 0.57 0.59 0.58 0.49 0.37 0.38 0.45 0.46 0.46 0.46 0.45 0.49 0.50 0.51 0.49 0.49 0.53 0.62 0.66 0.66 0.67
0.99 0.85 0.71 0.64 0.59 0.60 0.63 0.65 0.68 0.71 0.73 0.76 0.74 0.68 0.57 0.72 0.94 0.90 0.73 0.63 0.67 0.69 0.72 0.57 0.63 0.56 0.73 0.79 0.76 0.72 0.70 0.56 0.49 0.58 0.67 0.57 0.47 0.55 0.55 0.55 0.54 0.52 0.52 0.51 0.45 0.44 0.44 0.44 0.46 0.48 0.50 0.62 0.67 0.69
0.94 0.81 0.70 0.61 0.57 0.59 0.61 0.62 0.67 0.72 0.72 0.72 0.64 0.62 0.82 0.94 0.79 0.68 0.56 0.66 0.76 0.69 0.78 0.79 0.78 0.64 0.73 0.56 0.57 0.67 0.60 0.60 0.49 0.56 0.56 0.51 0.50 0.56 0.61 0.59 0.59 0.61 0.60 0.57 0.53 0.51 0.50 0.50 0.50 0.48 0.49 0.52 0.59 0.68
0.88 0.76 0.68 0.59 0.58 0.61 0.61 0.59 0.60 0.66 0.68 0.69 0.69 0.77 0.75 0.73 0.63 0.59 0.63 0.81 0.66 0.62 0.76 0.69 0.65 0.69 0.68 0.73 0.58 0.62 0.59 0.56 0.45 0.65 0.54 0.46 0.56 0.63 0.62 0.61 0.60 0.64 0.64 0.62 0.62 0.52 0.50 0.50 0.50 0.49 0.50 0.52 0.51 0.57
0.82 0.74 0.67 0.58 0.60 0.63 0.63 0.61 0.61 0.67 0.70 0.62 0.72 0.70 0.65 0.65 0.55 0.57 0.56 0.58 0.61 0.73 0.73 0.70 0.69 0.71 0.71 0.70 0.59 0.52 0.44 0.44 0.60 0.52 0.45 0.53 0.63 0.71 0.66 0.63 0.62 0.62 0.66 0.64 0.65 0.63 0.57 0.51 0.51 0.49 0.47 0.51 0.51 0.50
0.78 0.75 0.62 0.58 0.64 0.66 0.67 0.67 0.65 0.65 0.56 0.50 0.60 0.52 0.53 0.55 0.68 0.72 0.68 0.68 0.69 0.63 0.59 0.62 0.67 0.64 0.65 0.54 0.52 0.43 0.52 0.56 0.45 0.38 0.42 0.55 0.63 0.68 0.69 0.70 0.61 0.63 0.64 0.55 0.64 0.65 0.53 0.50 0.49 0.48 0.47 0.46 0.46 0.48
0.79 0.72 0.61 0.57 0.63 0.68 0.63 0.61 0.62 0.63 0.53 0.49 0.62 0.47 0.53 0.75 0.80 0.74 0.71 0.68 0.59 0.64 0.66 0.63 0.57 0.55 0.50 0.47 0.51 0.51 0.44 0.39 0.39 0.37 0.48 0.53 0.59 0.60 0.59 0.56 0.55 0.50 0.50 0.56 0.56 0.67 0.60 0.57 0.46 0.42 0.46 0.50 0.49 0.51
0.76 0.68 0.70 0.68 0.70 0.67 0.63 0.65 0.64 0.63 0.59 0.51 0.55 0.55 0.64 0.67 0.68 0.65 0.63 0.50 0.54 0.54 0.56 0.46 0.41 0.40 0.42 0.44 0.42 0.39 0.36 0.33 0.39 0.47 0.51 0.55 0.53 0.53 0.52 0.50 0.50 0.45 0.53 0.54 0.52 0.59 0.69 0.54 0.49 0.46 0.46 0.48 0.50 0.52
0.75 0.69 0.77 0.70 0.63 0.66 0.69 0.68 0.65 0.54 0.51 0.61 0.64 0.78 0.72 0.74 0.63 0.64 0.59 0.54 0.60 0.48 0.32 0.38 0.33 0.36 0.47 0.36 0.37 0.46 0.41 0.41 0.43 0.49 0.51 0.54 0.56 0.55 0.54 0.51 0.51 0.49 0.50 0.56 0.56 0.54 0.53 0.58 0.55 0.54 0.49 0.50 0.51 0.56
0.75 0.75 0.68 0.63 0.59 0.69 0.68 0.60 0.59 0.58 0.57 0.68 0.74 0.73 0.78 0.77 0.72 0.67 0.67 0.66 0.58 0.52 0.44 0.36 0.47 0.39 0.34 0.33 0.35 0.45 0.46 0.49 0.55 0.54 0.56 0.59 0.64 0.63 0.62 0.57 0.53 0.52 0.51 0.55 0.58 0.60 0.50 0.50 0.50 0.49 0.50 0.53 0.47 0.51
0.60 0.58 0.59 0.61 0.65 0.63 0.67 0.69 0.56 0.52 0.65 0.74 0.78 0.88 0.92 0.85 0.72 0.68 0.71 0.69 0.64 0.55 0.55 0.48 0.41 0.38 0.39 0.47 0.50 0.52 0.53 0.55 0.54 0.59 0.63 0.67 0.68 0.64 0.69 0.70 0.67 0.62 0.57 0.56 0.55 0.58 0.50 0.54 0.51 0.46 0.45 0.46 0.39 0.42
0.60 0.67 0.67 0.75 0.71 0.58 0.61 0.62 0.80 0.66 0.64 0.85 0.95 0.79 0.81 0.82 0.74 0.72 0.68 0.62 0.59 0.49 0.43 0.41 0.42 0.45 0.47 0.52 0.57 0.57 0.53 0.56 0.57 0.49 0.49 0.61 0.66 0.71 0.59 0.56 0.54 0.54 0.55 0.52 0.48 0.67 0.61 0.60 0.57 0.48 0.43 0.44 0.44 0.43
0.70 0.82 0.83 0.79 0.69 0.64 0.56 0.64 0.69 0.73 0.79 0.79 0.86 0.75 0.70 0.80 0.68 0.63 0.58 0.59 0.41 0.37 0.35 0.43 0.45 0.49 0.52 0.55 0.57 0.53 0.51 0.53 0.53 0.47 0.46 0.53 0.63 0.60 0.55 0.56 0.58 0.62 0.52 0.49 0.46 0.51 0.54 0.60 0.57 0.54 0.49 0.49 0.47 0.45
0.87 0.90 0.76 0.81 0.63 0.70 0.63 0.56 0.56 0.78 0.76 0.76 0.71 0.71 0.70 0.68 0.61 0.57 0.55 0.44 0.42 0.40 0.43 0.47 0.47 0.43 0.51 0.55 0.57 0.57 0.55 0.59 0.59 0.55 0.53 0.56 0.53 0.54 0.51 0.48 0.47 0.58 0.58 0.52 0.53 0.51 0.54 0.59 0.55 0.51 0.49 0.52 0.49 0.46
0.77 0.79 0.70 0.76 0.65 0.61 0.58 0.75 0.69 0.74 0.76 0.82 0.72 0.65 0.59 0.59 0.58 0.63 0.54 0.51 0.48 0.54 0.55 0.55 0.46 0.55 0.57 0.59 0.63 0.58 0.49 0.50 0.53 0.53 0.56 0.55 0.53 0.57 0.53 0.50 0.45 0.45 0.49 0.52 0.53 0.49 0.50 0.53 0.52 0.57 0.52 0.48 0.46 0.46
0.80 0.60 0.64 0.64 0.57 0.48 0.68 0.66 0.80 0.84 0.72 0.61 0.56 0.59 0.59 0.58 0.60 0.57 0.46 0.46 0.49 0.52 0.48 0.40 0.42 0.46 0.46 0.41 0.41 0.36 0.35 0.38 0.51 0.54 0.55 0.52 0.46 0.45 0.46 0.45 0.45 0.45 0.51 0.54 0.51 0.50 0.51 0.52 0.53 0.51 0.47 0.46 0.43 0.44
0.56 0.44 0.45 0.43 0.61 0.59 0.64 0.71 0.70 0.75 0.58 0.58 0.62 0.72 0.62 0.63 0.56 0.51 0.48 0.50 0.47 0.37 0.34 0.37 0.34 0.32 0.30 0.30 0.32 0.34 0.38 0.46 0.45 0.42 0.44 0.47 0.47 0.47 0.46 0.45 0.44 0.44 0.50 0.44 0.43 0.47 0.47 0.49 0.49 0.44 0.36 0.37 0.39 0.41
0.37 0.39 0.37 0.46 0.49 0.53 0.64 0.61 0.64 0.60 0.58 0.58 0.67 0.68 0.71 0.65 0.52 0.45 0.53 0.56 0.52 0.44 0.30 0.26 0.26 0.27 0.26 0.28 0.30 0.33 0.37 0.45 0.41 0.36 0.37 0.39 0.39 0.40 0.40 0.38 0.37 0.43 0.49 0.49 0.47 0.49 0.50 0.50 0.47 0.44 0.42 0.39 0.40 0.46
0.35 0.32 0.45 0.54 0.59 0.70 0.83 0.82 0.69 0.66 0.67 0.60 0.68 0.59 0.58 0.51 0.45 0.56 0.64 0.66 0.58 0.44 0.30 0.28 0.27 0.25 0.23 0.26 0.33 0.37 0.41 0.43 0.41 0.39 0.39 0.39 0.41 0.41 0.39 0.35 0.33 0.40 0.44 0.44 0.49 0.50 0.48 0.46 0.45 0.44 0.42 0.44 0.45 0.45
0.36 0.44 0.46 0.56 0.56 0.57 0.61 0.66 0.64 0.64 0.74 0.61 0.63 0.53 0.49 0.51 0.49 0.59 0.63 0.63 0.57 0.40 0.33 0.32 0.31 0.29 0.26 0.24 0.25 0.32 0.40 0.43 0.46 0.44 0.43 0.41 0.41 0.38 0.34 0.35 0.36 0.36 0.38 0.41 0.43 0.47 0.45 0.45 0.44 0.42 0.43 0.42 0.44 0.47
0.29 0.37 0.52 0.51 0.56 0.72 0.78 0.68 0.66 0.65 0.67 0.74 0.67 0.58 0.61 0.65 0.65 0.64 0.66 0.66 0.60 0.47 0.39 0.35 0.33 0.32 0.29 0.27 0.26 0.25 0.28 0.36 0.42 0.38 0.37 0.34 0.34 0.36 0.42 0.44 0.42 0.40 0.38 0.35 0.33 0.36 0.35 0.33 0.37 0.42 0.45 0.46 0.48 0.47
0.25 0.38 0.43 0.50 0.52 0.61 0.76 0.82 0.78 0.85 0.86 0.84 0.81 0.65 0.66 0.69 0.72 0.78 0.72 0.69 0.63 0.56 0.42 0.33 0.28 0.27 0.26 0.26 0.26 0.25 0.28 0.30 0.33 0.34 0.34 0.33 0.33 0.37 0.40 0.40 0.40 0.41 0.43 0.43 0.41 0.41 0.44 0.45 0.45 0.45 0.44 0.42 0.43 0.46
0.39 0.49 0.54 0.61 0.68 0.73 0.78 0.75 0.72 0.78 0.82 0.82 0.95 0.76 0.64 0.68 0.74 0.76 0.75 0.72 0.69 0.60 0.42 0.34 0.29 0.26 0.24 0.25 0.27 0.26 0.27 0.31 0.33 0.34 0.35 0.38 0.38 0.38 0.41 0.41 0.43 0.43 0.42 0.41 0.42 0.42 0.42 0.42 0.43 0.43 0.43 0.41 0.41 0.41
0.46 0.52 0.58 0.61 0.63 0.79 0.85 0.72 0.71 0.83 0.91 0.79 0.77 0.83 0.77 0.68 0.61 0.70 0.74 0.72 0.68 0.61 0.51 0.44 0.36 0.28 0.26 0.25 0.28 0.31 0.32 0.32 0.34 0.36 0.38 0.38 0.39 0.40 0.43 0.43 0.43 0.42 0.41 0.41 0.42 0.41 0.42 0.42 0.41 0.42 0.42 0.43 0.44 0.45
0.44 0.50 0.58 0.63 0.66 0.67 0.72 0.63 0.64 0.68 0.75 0.76 0.85 0.80 0.79 0.72 0.66 0.71 0.75 0.74 0.69 0.64 0.58 0.52 0.43 0.40 0.31 0.27 0.30 0.32 0.34 0.34 0.34 0.35 0.36 0.36 0.36 0.38 0.41 0.42 0.42 0.41 0.43 0.43 0.42 0.43 0.43 0.43 0.44 0.44 0.45 0.45 0.46 0.45

GFSWCAN_prec_pwat_069.txt.gz
Precipitable_Water
1.32 1.34 1.37 1.40 1.27 0.96 0.78 0.76 0.75 0.69 0.63 0.62 0.63 0.65 0.67 0.69 0.65 0.67 0.64 0.72 0.57 0.47 0.52 0.55 0.49 0.42 0.39 0.37 0.29 0.34 0.33 0.31 0.28 0.23 0.25 0.27 0.25 0.27 0.25 0.28 0.27 0.24 0.22 0.22 0.25 0.21 0.17 0.45 0.41 0.31 0.39 0.48 0.49 0.50
1.35 1.36 1.43 1.42 1.22 0.88 0.76 0.75 0.73 0.70 0.65 0.68 0.64 0.63 0.64 0.65 0.64 0.65 0.56 0.70 0.73 0.51 0.48 0.65 0.65 0.62 0.58 0.49 0.42 0.40 0.31 0.32 0.30 0.23 0.24 0.26 0.25 0.31 0.30 0.22 0.36 0.23 0.30 0.25 0.29 0.28 0.46 0.51 0.45 0.49 0.51 0.48 0.49 0.50
1.34 1.39 1.42 1.41 1.10 0.83 0.74 0.73 0.72 0.71 0.67 0.68 0.69 0.65 0.63 0.63 0.65 0.63 0.56 0.64 0.65 0.47 0.46 0.48 0.50 0.65 0.66 0.57 0.59 0.38 0.43 0.44 0.40 0.45 0.33 0.30 0.22 0.28 0.22 0.25 0.30 0.35 0.42 0.30 0.29 0.33 0.40 0.45 0.49 0.52 0.53 0.51 0.54 0.55
1.32 1.35 1.39 1.32 1.03 0.80 0.74 0.72 0.69 0.69 0.68 0.68 0.69 0.68 0.68 0.67 0.68 0.70 0.66 0.73 0.69 0.53 0.35 0.37 0.63 0.61 0.73 0.66 0.61 0.61 0.54 0.57 0.53 0.51 0.41 0.35 0.29 0.35 0.26 0.27 0.26 0.30 0.34 0.28 0.25 0.28 0.35 0.40 0.49 0.54 0.58 0.60 0.58 0.56
1.32 1.36 1.43 1.27 0.94 0.77 0.73 0.71 0.68 0.66 0.67 0.67 0.70 0.71 0.72 0.71 0.72 0.73 0.77 0.81 0.82 0.58 0.39 0.38 0.51 0.56 0.68 0.69 0.67 0.69 0.62 0.56 0.51 0.46 0.45 0.40 0.45 0.41 0.38 0.35 0.27 0.33 0.28 0.26 0.21 0.27 0.29 0.31 0.38 0.45 0.48 0.54 0.60 0.62
1.31 1.39 1.41 1.19 0.89 0.76 0.73 0.67 0.65 0.66 0.64 0.66 0.67 0.69 0.70 0.71 0.72 0.68 0.55 0.77 0.84 0.78 0.50 0.33 0.54 0.51 0.63 0.68 0.68 0.67 0.67 0.65 0.61 0.55 0.52 0.55 0.57 0.51 0.38 0.30 0.35 0.37 0.38 0.41 0.33 0.39 0.42 0.42 0.45 0.47 0.43 0.47 0.57 0.64
1.38 1.45 1.38 1.11 0.88 0.74 0.71 0.66 0.64 0.66 0.64 0.66 0.68 0.68 0.68 0.71 0.69 0.54 0.55 0.75 0.88 0.83 0.56 0.43 0.42 0.63 0.67 0.70 0.70 0.70 0.75 0.73 0.71 0.66 0.61 0.63 0.59 0.58 0.49 0.37 0.45 0.46 0.42 0.45 0.49 0.47 0.44 0.44 0.39 0.47 0.48 0.49 0.55 0.63
1.41 1.43 1.32 1.03 0.84 0.74 0.70 0.66 0.66 0.68 0.67 0.68 0.72 0.72 0.75 0.79 0.77 0.70 0.84 0.90 0.92 0.77 0.70 0.48 0.47 0.60 0.80 0.69 0.67 0.80 0.69 0.73 0.68 0.69 0.71 0.65 0.66 0.62 0.48 0.55 0.54 0.51 0.50 0.48 0.50 0.52 0.50 0.49 0.50 0.49 0.51 0.50 0.46 0.53
1.43 1.42 1.25 0.96 0.82 0.72 0.69 0.65 0.65 0.67 0.68 0.69 0.71 0.75 0.79 0.73 0.63 0.70 0.94 0.99 0.98 0.84 0.60 0.58 0.52 0.50 0.83 0.75 0.78 0.79 0.80 0.62 0.73 0.57 0.63 0.69 0.59 0.50 0.58 0.58 0.54 0.53 0.49 0.46 0.52 0.52 0.51 0.47 0.46 0.47 0.49 0.49 0.47 0.46
1.45 1.37 1.11 0.91 0.79 0.71 0.66 0.63 0.64 0.65 0.70 0.69 0.68 0.62 0.55 0.75 0.90 0.89 0.85 0.77 0.80 0.77 0.71 0.54 0.65 0.54 0.69 0.70 0.71 0.69 0.73 0.56 0.43 0.61 0.73 0.58 0.53 0.66 0.70 0.69 0.60 0.57 0.51 0.53 0.47 0.44 0.46 0.45 0.44 0.45 0.45 0.48 0.48 0.48
1.39 1.18 0.98 0.86 0.75 0.69 0.62 0.64 0.65 0.61 0.65 0.61 0.52 0.53 0.83 0.95 0.83 0.78 0.62 0.58 0.65 0.53 0.62 0.63 0.65 0.58 0.77 0.63 0.61 0.72 0.54 0.53 0.40 0.48 0.47 0.47 0.48 0.60 0.73 0.72 0.68 0.62 0.61 0.59 0.57 0.57 0.55 0.50 0.46 0.45 0.46 0.48 0.47 0.49
1.19 1.03 0.92 0.81 0.74 0.66 0.66 0.64 0.62 0.56 0.57 0.61 0.63 0.80 0.85 0.79 0.76 0.65 0.57 0.60 0.53 0.46 0.57 0.54 0.63 0.68 0.70 0.79 0.63 0.61 0.48 0.51 0.40 0.59 0.45 0.36 0.46 0.60 0.66 0.71 0.70 0.71 0.69 0.66 0.63 0.57 0.57 0.55 0.52 0.49 0.44 0.46 0.48 0.51
1.04 0.93 0.85 0.77 0.69 0.68 0.64 0.62 0.61 0.65 0.65 0.62 0.61 0.69 0.67 0.68 0.57 0.51 0.44 0.45 0.45 0.53 0.55 0.54 0.54 0.60 0.64 0.63 0.54 0.51 0.44 0.44 0.58 0.41 0.33 0.37 0.43 0.50 0.59 0.68 0.67 0.68 0.69 0.70 0.64 0.60 0.63 0.64 0.61 0.54 0.49 0.51 0.51 0.50
0.91 0.85 0.80 0.73 0.65 0.65 0.68 0.68 0.67 0.63 0.52 0.39 0.48 0.52 0.56 0.54 0.62 0.61 0.58 0.52 0.57 0.56 0.50 0.49 0.51 0.49 0.55 0.49 0.50 0.40 0.50 0.48 0.34 0.29 0.28 0.39 0.43 0.46 0.52 0.58 0.60 0.62 0.65 0.60 0.57 0.62 0.65 0.57 0.53 0.53 0.53 0.55 0.50 0.50
0.86 0.79 0.79 0.78 0.67 0.63 0.66 0.68 0.66 0.61 0.47 0.37 0.49 0.45 0.54 0.67 0.75 0.74 0.72 0.66 0.65 0.61 0.51 0.47 0.51 0.49 0.44 0.42 0.44 0.41 0.36 0.28 0.28 0.26 0.36 0.44 0.50 0.51 0.50 0.53 0.55 0.56 0.55 0.52 0.55 0.59 0.60 0.58 0.54 0.53 0.53 0.53 0.53 0.53
0.82 0.89 0.89 0.82 0.69 0.68 0.67 0.67 0.62 0.59 0.49 0.41 0.41 0.49 0.70 0.69 0.71 0.70 0.65 0.59 0.61 0.54 0.50 0.44 0.37 0.32 0.32 0.36 0.31 0.29 0.28 0.25 0.30 0.39 0.46 0.53 0.55 0.55 0.57 0.58 0.60 0.60 0.59 0.58 0.58 0.59 0.58 0.57 0.53 0.53 0.54 0.51 0.52 0.54
0.86 0.90 0.93 0.81 0.65 0.63 0.69 0.63 0.57 0.47 0.41 0.51 0.60 0.80 0.82 0.78 0.65 0.64 0.67 0.63 0.61 0.47 0.30 0.35 0.25 0.26 0.37 0.30 0.29 0.36 0.33 0.38 0.44 0.44 0.50 0.54 0.54 0.55 0.58 0.61 0.60 0.65 0.64 0.64 0.63 0.66 0.64 0.65 0.62 0.59 0.53 0.55 0.55 0.55
0.89 0.97 0.91 0.73 0.59 0.59 0.68 0.62 0.55 0.52 0.50 0.64 0.64 0.78 0.84 0.76 0.66 0.65 0.65 0.64 0.51 0.43 0.36 0.31 0.39 0.26 0.23 0.23 0.28 0.36 0.43 0.49 0.50 0.46 0.44 0.45 0.49 0.54 0.59 0.59 0.60 0.62 0.64 0.65 0.61 0.60 0.66 0.66 0.60 0.57 0.54 0.55 0.56 0.52
0.77 0.77 0.67 0.60 0.57 0.51 0.53 0.65 0.56 0.34 0.55 0.74 0.83 0.84 0.76 0.75 0.74 0.72 0.66 0.63 0.56 0.53 0.43 0.39 0.31 0.28 0.32 0.40 0.38 0.41 0.44 0.45 0.40 0.45 0.45 0.50 0.53 0.54 0.55 0.57 0.61 0.61 0.60 0.57 0.57 0.60 0.63 0.62 0.58 0.54 0.55 0.57 0.50 0.49
0.80 0.75 0.71 0.75 0.66 0.51 0.44 0.52 0.78 0.59 0.58 0.75 0.85 0.78 0.71 0.66 0.70 0.65 0.59 0.60 0.55 0.51 0.38 0.33 0.33 0.38 0.39 0.43 0.47 0.46 0.45 0.45 0.45 0.41 0.40 0.47 0.52 0.53 0.54 0.52 0.52 0.55 0.55 0.58 0.59 0.61 0.59 0.55 0.52 0.53 0.57 0.55 0.49 0.47
0.77 0.84 0.84 0.76 0.65 0.61 0.51 0.50 0.59 0.65 0.74 0.72 0.82 0.79 0.68 0.73 0.67 0.62 0.56 0.62 0.55 0.47 0.37 0.37 0.42 0.43 0.48 0.54 0.58 0.54 0.52 0.51 0.45 0.45 0.45 0.45 0.49 0.48 0.46 0.49 0.50 0.50 0.49 0.48 0.51 0.54 0.55 0.53 0.56 0.59 0.55 0.53 0.53 0.51
0.77 0.94 0.77 0.73 0.61 0.61 0.53 0.53 0.41 0.62 0.69 0.76 0.75 0.72 0.65 0.65 0.65 0.65 0.66 0.54 0.53 0.52 0.50 0.47 0.45 0.40 0.45 0.52 0.55 0.55 0.54 0.51 0.51 0.52 0.50 0.47 0.40 0.39 0.41 0.44 0.42 0.42 0.46 0.47 0.52 0.57 0.62 0.59 0.55 0.54 0.53 0.52 0.54 0.54
0.80 0.81 0.72 0.67 0.57 0.56 0.52 0.78 0.61 0.67 0.60 0.64 0.72 0.66 0.67 0.67 0.71 0.77 0.55 0.57 0.59 0.66 0.62 0.55 0.50 0.46 0.49 0.55 0.47 0.47 0.49 0.47 0.47 0.45 0.42 0.40 0.41 0.41 0.40 0.42 0.45 0.41 0.41 0.43 0.49 0.51 0.56 0.59 0.58 0.53 0.52 0.49 0.48 0.47
0.72 0.60 0.52 0.60 0.69 0.53 0.56 0.59 0.77 0.74 0.78 0.71 0.59 0.58 0.65 0.66 0.72 0.61 0.50 0.54 0.61 0.67 0.63 0.54 0.51 0.39 0.38 0.40 0.37 0.37 0.42 0.43 0.40 0.41 0.41 0.39 0.36 0.37 0.39 0.39 0.41 0.42 0.44 0.46 0.48 0.53 0.56 0.56 0.58 0.51 0.49 0.50 0.47 0.43
0.46 0.46 0.50 0.37 0.55 0.56 0.49 0.62 0.74 0.71 0.61 0.65 0.59 0.65 0.67 0.74 0.56 0.54 0.51 0.52 0.62 0.63 0.61 0.54 0.46 0.35 0.30 0.32 0.33 0.35 0.42 0.42 0.38 0.35 0.39 0.43 0.38 0.39 0.38 0.39 0.39 0.43 0.46 0.45 0.46 0.48 0.45 0.49 0.48 0.46 0.44 0.44 0.42 0.43
0.32 0.39 0.35 0.32 0.38 0.42 0.59 0.61 0.64 0.62 0.62 0.62 0.67 0.71 0.70 0.57 0.49 0.46 0.49 0.56 0.59 0.60 0.58 0.49 0.34 0.30 0.30 0.31 0.28 0.30 0.34 0.42 0.42 0.35 0.37 0.40 0.38 0.36 0.34 0.32 0.32 0.36 0.46 0.48 0.45 0.41 0.40 0.40 0.39 0.40 0.41 0.42 0.42 0.43
0.28 0.31 0.40 0.52 0.56 0.59 0.58 0.72 0.75 0.67 0.58 0.53 0.62 0.63 0.58 0.45 0.45 0.52 0.61 0.60 0.57 0.59 0.56 0.42 0.32 0.30 0.28 0.28 0.31 0.34 0.37 0.40 0.39 0.36 0.40 0.41 0.39 0.36 0.32 0.29 0.30 0.38 0.46 0.48 0.46 0.42 0.41 0.42 0.43 0.42 0.42 0.45 0.45 0.46
0.34 0.37 0.30 0.39 0.50 0.58 0.54 0.61 0.65 0.67 0.65 0.70 0.67 0.58 0.51 0.52 0.56 0.62 0.61 0.62 0.60 0.54 0.48 0.41 0.34 0.33 0.31 0.30 0.31 0.32 0.34 0.37 0.39 0.39 0.38 0.38 0.37 0.36 0.37 0.39 0.39 0.41 0.46 0.48 0.45 0.43 0.44 0.44 0.41 0.43 0.44 0.42 0.44 0.46
0.29 0.35 0.36 0.37 0.45 0.52 0.60 0.68 0.71 0.77 0.82 0.77 0.64 0.58 0.57 0.70 0.79 0.72 0.66 0.61 0.54 0.49 0.45 0.39 0.36 0.34 0.34 0.33 0.33 0.34 0.34 0.33 0.31 0.29 0.29 0.30 0.32 0.32 0.37 0.40 0.39 0.39 0.41 0.41 0.40 0.42 0.45 0.46 0.46 0.45 0.46 0.46 0.47 0.49
0.24 0.30 0.25 0.29 0.37 0.45 0.63 0.74 0.76 0.81 0.84 0.82 0.83 0.82 0.83 0.80 0.82 0.77 0.65 0.59 0.55 0.52 0.50 0.45 0.41 0.35 0.32 0.29 0.28 0.31 0.34 0.34 0.34 0.32 0.30 0.31 0.32 0.34 0.36 0.37 0.37 0.38 0.40 0.40 0.42 0.44 0.46 0.47 0.47 0.46 0.45 0.44 0.45 0.45
0.30 0.33 0.26 0.25 0.29 0.50 0.64 0.84 0.92 0.90 0.86 0.81 0.85 0.77 0.72 0.73 0.78 0.77 0.68 0.62 0.60 0.59 0.55 0.51 0.49 0.42 0.39 0.35 0.31 0.29 0.29 0.34 0.34 0.35 0.36 0.35 0.35 0.36 0.36 0.38 0.39 0.40 0.41 0.42 0.43 0.45 0.45 0.45 0.45 0.44 0.43 0.42 0.43 0.44
0.24 0.24 0.29 0.36 0.50 0.71 0.75 0.76 0.79 0.75 0.77 0.74 0.73 0.78 0.76 0.71 0.69 0.74 0.75 0.70 0.66 0.60 0.57 0.55 0.53 0.48 0.48 0.45 0.40 0.36 0.32 0.33 0.32 0.33 0.34 0.34 0.35 0.38 0.39 0.40 0.41 0.42 0.42 0.42 0.43 0.44 0.45 0.45 0.45 0.45 0.45 0.44 0.45 0.45
0.44 0.50 0.52 0.51 0.52 0.56 0.67 0.71 0.74 0.73 0.74 0.72 0.75 0.79 0.73 0.67 0.68 0.78 0.83 0.77 0.69 0.66 0.62 0.59 0.58 0.55 0.51 0.51 0.45 0.42 0.34 0.35 0.35 0.34 0.36 0.38 0.37 0.38 0.39 0.40 0.41 0.42 0.42 0.42 0.43 0.44 0.44 0.44 0.44 0.46 0.46 0.46 0.46 0.44

GFSWCAN_prec_pwat_072.txt.gz
Precipitable_Water
1.33 1.37 1.38 1.40 1.39 1.28 0.98 0.82 0.80 0.77 0.68 0.63 0.63 0.62 0.62 0.64 0.62 0.65 0.60 0.68 0.52 0.40 0.46 0.50 0.48 0.37 0.37 0.35 0.26 0.30 0.29 0.26 0.23 0.18 0.20 0.22 0.22 0.26 0.25 0.27 0.26 0.23 0.20 0.20 0.23 0.19 0.15 0.39 0.37 0.26 0.35 0.43 0.43 0.43
1.32 1.36 1.34 1.39 1.36 1.14 0.90 0.80 0.77 0.76 0.67 0.66 0.66 0.63 0.61 0.60 0.60 0.60 0.52 0.63 0.70 0.48 0.42 0.59 0.60 0.62 0.55 0.53 0.40 0.39 0.29 0.29 0.26 0.20 0.21 0.22 0.19 0.24 0.25 0.20 0.35 0.22 0.28 0.24 0.26 0.24 0.39 0.45 0.42 0.46 0.48 0.44 0.45 0.46
1.32 1.34 1.31 1.35 1.30 1.04 0.84 0.77 0.75 0.73 0.68 0.67 0.66 0.65 0.64 0.62 0.61 0.61 0.55 0.62 0.64 0.46 0.41 0.45 0.41 0.59 0.68 0.64 0.56 0.35 0.40 0.42 0.38 0.41 0.29 0.25 0.18 0.23 0.15 0.19 0.25 0.32 0.39 0.29 0.26 0.27 0.31 0.37 0.43 0.46 0.50 0.49 0.51 0.51
1.26 1.29 1.31 1.35 1.27 1.00 0.83 0.77 0.73 0.67 0.70 0.67 0.68 0.69 0.70 0.68 0.67 0.68 0.62 0.71 0.68 0.54 0.34 0.36 0.62 0.55 0.67 0.64 0.58 0.58 0.53 0.56 0.50 0.46 0.38 0.34 0.27 0.32 0.22 0.23 0.22 0.26 0.31 0.26 0.24 0.26 0.27 0.30 0.33 0.36 0.39 0.46 0.48 0.54
1.21 1.26 1.31 1.40 1.22 0.92 0.80 0.76 0.72 0.67 0.66 0.68 0.67 0.69 0.71 0.69 0.68 0.68 0.72 0.76 0.77 0.54 0.37 0.38 0.52 0.58 0.66 0.66 0.62 0.64 0.62 0.57 0.51 0.47 0.44 0.39 0.44 0.42 0.42 0.37 0.26 0.32 0.26 0.21 0.20 0.29 0.25 0.29 0.36 0.39 0.37 0.38 0.40 0.42
1.19 1.28 1.37 1.40 1.17 0.90 0.78 0.74 0.69 0.65 0.66 0.66 0.68 0.68 0.69 0.67 0.66 0.62 0.52 0.76 0.83 0.75 0.49 0.33 0.56 0.58 0.63 0.70 0.69 0.68 0.70 0.67 0.62 0.56 0.54 0.57 0.61 0.52 0.42 0.34 0.39 0.41 0.41 0.37 0.29 0.36 0.37 0.40 0.42 0.44 0.41 0.43 0.45 0.45
1.21 1.29 1.37 1.37 1.11 0.89 0.77 0.73 0.69 0.67 0.68 0.66 0.69 0.70 0.69 0.72 0.67 0.52 0.53 0.76 0.90 0.84 0.55 0.43 0.43 0.67 0.75 0.72 0.74 0.75 0.78 0.72 0.69 0.66 0.64 0.62 0.62 0.63 0.53 0.42 0.50 0.53 0.53 0.48 0.44 0.44 0.40 0.44 0.39 0.45 0.47 0.48 0.49 0.46
1.22 1.32 1.40 1.30 1.04 0.87 0.75 0.73 0.68 0.68 0.68 0.67 0.69 0.71 0.73 0.77 0.76 0.67 0.84 0.92 0.92 0.77 0.68 0.45 0.47 0.60 0.79 0.66 0.63 0.80 0.73 0.75 0.73 0.70 0.73 0.61 0.60 0.61 0.49 0.61 0.66 0.65 0.61 0.54 0.51 0.51 0.49 0.51 0.48 0.47 0.49 0.49 0.46 0.44
1.25 1.38 1.37 1.26 0.97 0.84 0.73 0.73 0.66 0.67 0.70 0.68 0.69 0.72 0.75 0.72 0.67 0.73 0.95 0.97 0.96 0.83 0.55 0.51 0.41 0.39 0.72 0.68 0.72 0.74 0.79 0.61 0.77 0.63 0.62 0.61 0.54 0.48 0.55 0.61 0.67 0.70 0.62 0.53 0.52 0.51 0.53 0.50 0.45 0.44 0.46 0.45 0.43 0.41
1.29 1.39 1.35 1.12 0.92 0.82 0.73 0.67 0.65 0.66 0.69 0.68 0.66 0.58 0.54 0.76 0.91 0.93 0.84 0.71 0.75 0.71 0.66 0.52 0.59 0.51 0.66 0.66 0.62 0.61 0.70 0.61 0.47 0.52 0.61 0.49 0.46 0.63 0.68 0.70 0.71 0.69 0.66 0.62 0.50 0.47 0.49 0.47 0.47 0.46 0.46 0.46 0.44 0.43
1.31 1.35 1.21 1.04 0.91 0.78 0.71 0.65 0.66 0.64 0.63 0.59 0.49 0.48 0.80 0.95 0.86 0.76 0.62 0.56 0.60 0.51 0.57 0.55 0.54 0.53 0.75 0.54 0.55 0.60 0.51 0.53 0.39 0.48 0.47 0.42 0.38 0.48 0.60 0.66 0.68 0.70 0.67 0.62 0.59 0.57 0.57 0.55 0.48 0.47 0.48 0.46 0.47 0.47
1.28 1.17 1.04 0.95 0.83 0.76 0.71 0.66 0.65 0.57 0.56 0.59 0.59 0.76 0.84 0.78 0.71 0.62 0.54 0.56 0.50 0.42 0.52 0.49 0.49 0.58 0.61 0.69 0.52 0.57 0.45 0.47 0.36 0.54 0.42 0.33 0.39 0.46 0.50 0.59 0.66 0.72 0.69 0.67 0.68 0.64 0.60 0.59 0.55 0.55 0.54 0.48 0.50 0.51
1.14 1.01 0.93 0.85 0.79 0.74 0.67 0.65 0.63 0.65 0.66 0.60 0.56 0.65 0.65 0.66 0.54 0.50 0.42 0.46 0.45 0.52 0.55 0.53 0.44 0.56 0.60 0.61 0.51 0.48 0.39 0.39 0.53 0.38 0.30 0.32 0.41 0.45 0.49 0.57 0.65 0.69 0.69 0.69 0.69 0.71 0.68 0.60 0.61 0.62 0.56 0.50 0.52 0.51
1.01 0.91 0.85 0.80 0.71 0.69 0.71 0.68 0.67 0.61 0.50 0.38 0.39 0.48 0.55 0.53 0.58 0.58 0.59 0.57 0.63 0.59 0.54 0.51 0.46 0.48 0.53 0.45 0.48 0.36 0.45 0.44 0.32 0.26 0.24 0.36 0.44 0.48 0.50 0.52 0.55 0.55 0.60 0.60 0.63 0.65 0.61 0.62 0.64 0.64 0.61 0.54 0.51 0.50
0.87 0.86 0.83 0.81 0.72 0.64 0.67 0.67 0.68 0.61 0.46 0.35 0.41 0.39 0.53 0.66 0.74 0.75 0.75 0.66 0.66 0.63 0.51 0.43 0.47 0.46 0.41 0.38 0.43 0.38 0.33 0.26 0.27 0.25 0.32 0.40 0.47 0.52 0.53 0.53 0.53 0.54 0.54 0.54 0.56 0.55 0.53 0.59 0.63 0.63 0.64 0.60 0.53 0.52
0.86 0.92 0.90 0.86 0.73 0.68 0.68 0.67 0.63 0.58 0.48 0.37 0.38 0.44 0.66 0.68 0.67 0.68 0.65 0.60 0.64 0.49 0.45 0.43 0.33 0.30 0.29 0.32 0.28 0.26 0.25 0.23 0.29 0.40 0.43 0.46 0.47 0.51 0.53 0.56 0.56 0.60 0.60 0.60 0.60 0.63 0.63 0.60 0.60 0.61 0.63 0.59 0.53 0.54
0.89 0.95 0.96 0.87 0.74 0.65 0.67 0.60 0.55 0.45 0.39 0.39 0.55 0.75 0.76 0.74 0.65 0.63 0.66 0.59 0.58 0.40 0.28 0.30 0.24 0.23 0.31 0.26 0.24 0.31 0.27 0.33 0.40 0.43 0.48 0.43 0.40 0.41 0.47 0.52 0.56 0.59 0.60 0.59 0.61 0.65 0.65 0.66 0.63 0.62 0.59 0.58 0.56 0.58
0.91 0.99 0.96 0.88 0.64 0.59 0.64 0.62 0.54 0.48 0.38 0.55 0.59 0.73 0.76 0.73 0.69 0.64 0.61 0.60 0.47 0.41 0.39 0.29 0.35 0.25 0.22 0.21 0.25 0.35 0.39 0.43 0.46 0.43 0.42 0.45 0.45 0.48 0.52 0.52 0.55 0.58 0.61 0.61 0.63 0.66 0.67 0.63 0.59 0.62 0.65 0.64 0.60 0.59
0.77 0.85 0.83 0.68 0.59 0.51 0.50 0.61 0.57 0.31 0.43 0.70 0.79 0.83 0.77 0.73 0.75 0.66 0.65 0.67 0.64 0.59 0.50 0.40 0.26 0.24 0.28 0.35 0.36 0.40 0.41 0.41 0.39 0.40 0.46 0.49 0.51 0.50 0.50 0.52 0.52 0.54 0.54 0.57 0.57 0.59 0.64 0.66 0.64 0.62 0.62 0.61 0.59 0.58
0.81 0.83 0.74 0.69 0.71 0.50 0.42 0.47 0.71 0.55 0.48 0.69 0.82 0.78 0.75 0.68 0.69 0.66 0.64 0.67 0.67 0.62 0.50 0.42 0.32 0.34 0.36 0.37 0.42 0.44 0.46 0.48 0.47 0.41 0.44 0.47 0.49 0.48 0.43 0.44 0.45 0.48 0.48 0.50 0.52 0.55 0.59 0.60 0.59 0.55 0.55 0.60 0.61 0.55
0.81 0.91 0.89 0.79 0.65 0.59 0.51 0.46 0.56 0.62 0.65 0.69 0.79 0.79 0.72 0.75 0.64 0.64 0.64 0.69 0.59 0.54 0.47 0.49 0.48 0.44 0.44 0.45 0.49 0.52 0.50 0.52 0.46 0.46 0.41 0.38 0.41 0.38 0.39 0.44 0.46 0.45 0.43 0.45 0.49 0.54 0.57 0.57 0.58 0.61 0.62 0.63 0.60 0.57
0.77 0.97 0.86 0.78 0.60 0.59 0.51 0.53 0.41 0.51 0.58 0.64 0.70 0.73 0.63 0.62 0.65 0.68 0.76 0.64 0.57 0.56 0.58 0.57 0.57 0.50 0.38 0.43 0.49 0.53 0.52 0.49 0.48 0.48 0.45 0.39 0.33 0.34 0.36 0.41 0.42 0.40 0.41 0.43 0.44 0.51 0.57 0.58 0.59 0.61 0.58 0.57 0.57 0.56
0.77 0.86 0.75 0.70 0.54 0.53 0.49 0.71 0.57 0.59 0.51 0.64 0.69 0.62 0.64 0.69 0.73 0.79 0.63 0.61 0.60 0.66 0.66 0.66 0.62 0.56 0.43 0.48 0.50 0.44 0.47 0.42 0.40 0.37 0.36 0.34 0.36 0.36 0.37 0.40 0.42 0.39 0.36 0.40 0.46 0.49 0.54 0.56 0.54 0.52 0.51 0.51 0.50 0.50
0.75 0.63 0.53 0.53 0.57 0.52 0.62 0.53 0.69 0.71 0.75 0.72 0.66 0.56 0.63 0.67 0.76 0.64 0.56 0.58 0.62 0.70 0.67 0.64 0.59 0.48 0.40 0.38 0.36 0.33 0.37 0.39 0.36 0.36 0.37 0.35 0.33 0.34 0.37 0.38 0.39 0.41 0.43 0.47 0.50 0.50 0.52 0.54 0.53 0.49 0.48 0.48 0.46 0.43
0.57 0.47 0.47 0.38 0.59 0.62 0.52 0.50 0.64 0.71 0.61 0.64 0.61 0.60 0.65 0.72 0.55 0.51 0.49 0.52 0.59 0.60 0.60 0.61 0.54 0.42 0.31 0.31 0.30 0.33 0.39 0.38 0.33 0.31 0.36 0.38 0.36 0.37 0.36 0.37 0.38 0.42 0.48 0.46 0.43 0.43 0.43 0.43 0.43 0.41 0.42 0.42 0.41 0.42
0.39 0.39 0.40 0.37 0.36 0.37 0.50 0.59 0.66 0.63 0.62 0.60 0.63 0.72 0.72 0.62 0.52 0.45 0.51 0.55 0.58 0.58 0.58 0.55 0.42 0.33 0.31 0.29 0.27 0.30 0.34 0.41 0.39 0.32 0.33 0.37 0.36 0.33 0.31 0.30 0.31 0.38 0.48 0.47 0.41 0.39 0.39 0.41 0.42 0.42 0.41 0.43 0.43 0.42
0.31 0.29 0.40 0.49 0.52 0.58 0.56 0.64 0.70 0.64 0.63 0.61 0.63 0.61 0.61 0.52 0.48 0.55 0.65 0.65 0.58 0.60 0.59 0.47 0.35 0.31 0.29 0.29 0.31 0.33 0.36 0.40 0.38 0.34 0.36 0.39 0.39 0.35 0.33 0.31 0.33 0.41 0.48 0.48 0.46 0.44 0.42 0.43 0.42 0.40 0.40 0.42 0.43 0.44
0.37 0.38 0.29 0.36 0.45 0.53 0.49 0.56 0.60 0.62 0.68 0.75 0.70 0.57 0.55 0.53 0.56 0.69 0.68 0.65 0.59 0.55 0.49 0.43 0.37 0.36 0.34 0.33 0.33 0.34 0.34 0.37 0.37 0.37 0.37 0.37 0.36 0.36 0.37 0.38 0.42 0.47 0.49 0.48 0.47 0.47 0.45 0.44 0.43 0.43 0.43 0.42 0.45 0.47
0.33 0.37 0.36 0.29 0.36 0.43 0.51 0.59 0.67 0.78 0.83 0.78 0.68 0.61 0.61 0.71 0.79 0.77 0.74 0.63 0.57 0.52 0.50 0.44 0.38 0.39 0.38 0.40 0.35 0.34 0.34 0.33 0.31 0.29 0.27 0.28 0.30 0.31 0.38 0.39 0.38 0.41 0.44 0.41 0.42 0.44 0.46 0.47 0.47 0.45 0.45 0.44 0.45 0.47
0.33 0.35 0.26 0.26 0.30 0.34 0.48 0.67 0.69 0.82 0.88 0.83 0.82 0.80 0.80 0.83 0.86 0.87 0.72 0.63 0.56 0.52 0.53 0.51 0.46 0.42 0.38 0.37 0.34 0.32 0.33 0.33 0.32 0.31 0.29 0.29 0.31 0.33 0.35 0.37 0.37 0.38 0.41 0.41 0.42 0.45 0.48 0.48 0.48 0.48 0.46 0.45 0.45 0.45
0.33 0.32 0.27 0.24 0.21 0.30 0.45 0.62 0.78 0.89 0.88 0.83 0.84 0.75 0.75 0.80 0.80 0.79 0.74 0.71 0.64 0.60 0.57 0.54 0.51 0.48 0.47 0.44 0.44 0.36 0.32 0.33 0.33 0.33 0.36 0.36 0.36 0.35 0.36 0.37 0.39 0.40 0.41 0.42 0.43 0.45 0.46 0.46 0.47 0.45 0.44 0.44 0.44 0.45
0.28 0.24 0.24 0.26 0.34 0.56 0.70 0.66 0.66 0.66 0.74 0.75 0.73 0.78 0.78 0.77 0.69 0.74 0.83 0.75 0.66 0.61 0.62 0.62 0.58 0.55 0.57 0.52 0.49 0.45 0.39 0.36 0.33 0.33 0.35 0.37 0.37 0.36 0.38 0.39 0.40 0.41 0.41 0.42 0.43 0.44 0.45 0.45 0.45 0.46 0.46 0.45 0.45 0.45
0.31 0.30 0.34 0.36 0.41 0.46 0.57 0.63 0.67 0.69 0.74 0.72 0.73 0.77 0.79 0.76 0.70 0.81 0.89 0.90 0.80 0.69 0.69 0.69 0.69 0.62 0.56 0.50 0.50 0.50 0.43 0.40 0.37 0.35 0.36 0.38 0.38 0.38 0.39 0.40 0.41 0.41 0.42 0.42 0.43 0.44 0.44 0.45 0.45 0.46 0.47 0.48 0.47 0.46

GFSWCAN_prec_pwat_075.txt.gz
Precipitable_Water
1.41 1.37 1.34 1.37 1.33 1.36 1.17 0.95 0.82 0.83 0.76 0.68 0.64 0.63 0.62 0.59 0.59 0.61 0.57 0.66 0.53 0.38 0.41 0.45 0.44 0.33 0.34 0.33 0.25 0.29 0.28 0.25 0.23 0.18 0.19 0.20 0.21 0.25 0.24 0.27 0.25 0.25 0.23 0.23 0.25 0.19 0.13 0.36 0.34 0.24 0.33 0.39 0.38 0.39
1.35 1.32 1.28 1.32 1.30 1.26 1.04 0.86 0.80 0.80 0.77 0.70 0.68 0.65 0.62 0.59 0.57 0.56 0.49 0.62 0.66 0.49 0.40 0.56 0.55 0.58 0.53 0.49 0.36 0.37 0.29 0.28 0.25 0.20 0.21 0.22 0.19 0.22 0.21 0.17 0.32 0.22 0.28 0.25 0.25 0.24 0.34 0.40 0.37 0.42 0.42 0.39 0.40 0.41
1.28 1.23 1.23 1.30 1.30 1.18 0.97 0.81 0.79 0.78 0.77 0.70 0.67 0.66 0.65 0.63 0.62 0.61 0.55 0.63 0.63 0.49 0.45 0.45 0.43 0.59 0.68 0.65 0.62 0.36 0.39 0.41 0.35 0.38 0.29 0.26 0.19 0.24 0.15 0.18 0.24 0.29 0.37 0.29 0.28 0.30 0.34 0.39 0.41 0.40 0.41 0.41 0.44 0.46
1.20 1.19 1.22 1.29 1.31 1.17 0.96 0.83 0.80 0.76 0.73 0.70 0.67 0.69 0.70 0.67 0.65 0.65 0.60 0.68 0.62 0.52 0.35 0.39 0.64 0.58 0.70 0.69 0.63 0.56 0.51 0.54 0.50 0.46 0.36 0.32 0.29 0.35 0.25 0.25 0.23 0.26 0.29 0.26 0.25 0.27 0.28 0.28 0.29 0.33 0.34 0.36 0.37 0.39
1.16 1.17 1.22 1.30 1.35 1.12 0.92 0.81 0.78 0.74 0.70 0.68 0.68 0.69 0.70 0.67 0.66 0.67 0.69 0.74 0.77 0.55 0.38 0.42 0.55 0.63 0.68 0.68 0.64 0.64 0.62 0.57 0.54 0.47 0.45 0.42 0.47 0.43 0.43 0.41 0.35 0.38 0.28 0.23 0.20 0.27 0.27 0.27 0.31 0.37 0.36 0.37 0.39 0.39
1.14 1.18 1.21 1.31 1.31 1.11 0.91 0.79 0.77 0.72 0.69 0.65 0.68 0.71 0.70 0.68 0.67 0.66 0.51 0.76 0.85 0.76 0.50 0.35 0.58 0.59 0.65 0.69 0.70 0.68 0.70 0.69 0.66 0.59 0.57 0.59 0.63 0.56 0.46 0.41 0.51 0.48 0.48 0.46 0.34 0.35 0.35 0.38 0.40 0.43 0.40 0.42 0.43 0.43
1.14 1.14 1.22 1.31 1.31 1.09 0.92 0.80 0.76 0.74 0.71 0.67 0.68 0.70 0.70 0.71 0.68 0.52 0.54 0.75 0.90 0.85 0.55 0.40 0.45 0.67 0.73 0.70 0.70 0.70 0.75 0.73 0.70 0.65 0.61 0.63 0.63 0.63 0.53 0.41 0.56 0.60 0.61 0.59 0.58 0.49 0.41 0.43 0.41 0.45 0.45 0.48 0.50 0.49
1.08 1.12 1.21 1.34 1.28 1.05 0.90 0.77 0.77 0.72 0.70 0.68 0.70 0.70 0.72 0.77 0.77 0.69 0.88 0.96 0.92 0.77 0.66 0.45 0.44 0.53 0.70 0.59 0.59 0.75 0.68 0.72 0.72 0.69 0.71 0.64 0.64 0.62 0.47 0.58 0.63 0.66 0.69 0.69 0.65 0.60 0.54 0.53 0.53 0.50 0.52 0.51 0.47 0.45
1.04 1.07 1.21 1.35 1.22 0.99 0.86 0.77 0.75 0.69 0.71 0.71 0.71 0.72 0.75 0.74 0.68 0.72 0.93 0.96 0.96 0.76 0.51 0.50 0.40 0.37 0.69 0.66 0.68 0.70 0.71 0.53 0.68 0.57 0.60 0.63 0.51 0.42 0.50 0.55 0.60 0.66 0.65 0.69 0.68 0.65 0.59 0.55 0.55 0.52 0.50 0.47 0.45 0.42
1.04 1.07 1.23 1.34 1.12 0.90 0.82 0.76 0.71 0.68 0.67 0.69 0.68 0.58 0.52 0.75 0.94 0.93 0.82 0.72 0.71 0.68 0.62 0.47 0.51 0.41 0.57 0.58 0.56 0.53 0.58 0.51 0.44 0.53 0.62 0.49 0.45 0.51 0.53 0.54 0.57 0.65 0.70 0.73 0.62 0.57 0.56 0.54 0.52 0.52 0.50 0.52 0.50 0.45
1.15 1.17 1.24 1.19 0.97 0.90 0.82 0.72 0.71 0.68 0.64 0.60 0.49 0.48 0.79 0.95 0.87 0.76 0.60 0.55 0.56 0.48 0.53 0.53 0.51 0.42 0.64 0.45 0.47 0.54 0.47 0.49 0.37 0.46 0.43 0.40 0.38 0.42 0.49 0.51 0.59 0.62 0.65 0.67 0.66 0.66 0.63 0.59 0.56 0.55 0.53 0.52 0.51 0.48
1.19 1.23 1.17 1.11 1.00 0.87 0.78 0.73 0.70 0.61 0.56 0.61 0.60 0.73 0.85 0.78 0.71 0.59 0.54 0.57 0.51 0.42 0.55 0.50 0.50 0.52 0.58 0.65 0.49 0.53 0.42 0.45 0.34 0.50 0.39 0.30 0.35 0.46 0.48 0.52 0.57 0.62 0.67 0.68 0.67 0.62 0.63 0.63 0.63 0.61 0.58 0.56 0.55 0.51
1.11 1.05 1.04 0.93 0.82 0.79 0.72 0.70 0.67 0.66 0.69 0.61 0.56 0.64 0.65 0.67 0.52 0.48 0.43 0.47 0.47 0.56 0.55 0.55 0.43 0.52 0.58 0.58 0.50 0.47 0.36 0.35 0.49 0.36 0.30 0.31 0.41 0.47 0.50 0.53 0.57 0.65 0.67 0.65 0.64 0.66 0.65 0.68 0.71 0.65 0.60 0.61 0.58 0.53
1.07 1.00 0.87 0.82 0.76 0.73 0.73 0.72 0.68 0.64 0.52 0.38 0.37 0.45 0.52 0.50 0.56 0.58 0.57 0.55 0.62 0.59 0.53 0.48 0.44 0.47 0.52 0.43 0.46 0.36 0.42 0.42 0.30 0.25 0.25 0.38 0.42 0.46 0.53 0.57 0.57 0.56 0.58 0.57 0.60 0.64 0.64 0.66 0.68 0.68 0.69 0.68 0.67 0.58
0.89 0.90 0.88 0.83 0.74 0.66 0.70 0.67 0.70 0.62 0.46 0.35 0.38 0.35 0.53 0.67 0.71 0.73 0.74 0.68 0.65 0.62 0.45 0.41 0.45 0.47 0.40 0.37 0.40 0.36 0.31 0.25 0.26 0.24 0.34 0.43 0.47 0.49 0.48 0.52 0.54 0.57 0.58 0.58 0.61 0.60 0.59 0.60 0.62 0.64 0.68 0.71 0.70 0.64
0.85 0.92 0.86 0.87 0.77 0.70 0.69 0.67 0.64 0.59 0.47 0.37 0.37 0.43 0.67 0.66 0.65 0.66 0.65 0.59 0.61 0.48 0.43 0.40 0.34 0.30 0.29 0.30 0.26 0.25 0.23 0.22 0.28 0.37 0.44 0.48 0.45 0.43 0.44 0.46 0.49 0.55 0.57 0.61 0.58 0.62 0.65 0.63 0.64 0.68 0.68 0.68 0.68 0.65
0.90 0.95 0.97 0.92 0.82 0.69 0.67 0.61 0.54 0.44 0.38 0.36 0.49 0.64 0.64 0.68 0.66 0.65 0.64 0.59 0.57 0.44 0.34 0.32 0.23 0.23 0.32 0.24 0.23 0.29 0.26 0.32 0.38 0.41 0.46 0.44 0.45 0.46 0.49 0.53 0.55 0.55 0.57 0.59 0.60 0.63 0.64 0.65 0.69 0.70 0.63 0.63 0.66 0.63
0.92 0.99 0.97 0.93 0.78 0.62 0.62 0.62 0.53 0.45 0.33 0.45 0.50 0.69 0.79 0.75 0.68 0.64 0.66 0.68 0.59 0.52 0.50 0.39 0.36 0.24 0.21 0.18 0.22 0.31 0.38 0.42 0.43 0.44 0.42 0.47 0.50 0.52 0.52 0.50 0.52 0.53 0.51 0.53 0.52 0.60 0.63 0.64 0.65 0.66 0.66 0.65 0.67 0.66
0.80 0.85 0.91 0.81 0.64 0.53 0.46 0.58 0.56 0.33 0.34 0.59 0.74 0.81 0.79 0.75 0.78 0.72 0.69 0.71 0.70 0.67 0.62 0.54 0.38 0.27 0.26 0.31 0.32 0.36 0.40 0.42 0.42 0.44 0.48 0.50 0.50 0.48 0.45 0.44 0.46 0.45 0.46 0.47 0.48 0.51 0.59 0.65 0.62 0.65 0.65 0.65 0.64 0.66
0.78 0.83 0.86 0.75 0.66 0.51 0.42 0.44 0.66 0.51 0.44 0.59 0.76 0.77 0.79 0.76 0.76 0.73 0.69 0.71 0.70 0.63 0.57 0.52 0.44 0.43 0.38 0.36 0.38 0.39 0.44 0.49 0.45 0.42 0.43 0.44 0.45 0.41 0.41 0.42 0.42 0.43 0.43 0.46 0.49 0.53 0.56 0.56 0.59 0.62 0.64 0.65 0.63 0.61
0.79 0.97 0.99 0.85 0.68 0.59 0.50 0.46 0.49 0.60 0.62 0.60 0.74 0.78 0.74 0.77 0.74 0.69 0.68 0.77 0.68 0.60 0.53 0.56 0.55 0.52 0.56 0.41 0.44 0.47 0.50 0.51 0.46 0.44 0.42 0.37 0.37 0.39 0.39 0.41 0.43 0.42 0.40 0.42 0.45 0.53 0.55 0.57 0.59 0.62 0.62 0.61 0.60 0.62
0.77 0.96 0.92 0.82 0.62 0.59 0.51 0.54 0.42 0.48 0.50 0.54 0.60 0.65 0.63 0.62 0.67 0.72 0.76 0.67 0.61 0.61 0.63 0.61 0.59 0.58 0.53 0.38 0.44 0.51 0.53 0.48 0.46 0.41 0.38 0.35 0.32 0.34 0.37 0.40 0.38 0.35 0.37 0.42 0.51 0.53 0.55 0.58 0.58 0.59 0.59 0.57 0.57 0.58
0.81 0.82 0.80 0.71 0.52 0.50 0.46 0.67 0.54 0.58 0.44 0.58 0.72 0.64 0.62 0.67 0.74 0.81 0.67 0.68 0.68 0.70 0.67 0.66 0.65 0.63 0.54 0.45 0.47 0.45 0.44 0.41 0.35 0.34 0.34 0.33 0.34 0.36 0.36 0.38 0.39 0.36 0.39 0.45 0.51 0.53 0.52 0.54 0.53 0.52 0.54 0.52 0.50 0.47
0.79 0.69 0.58 0.50 0.51 0.43 0.61 0.55 0.66 0.66 0.71 0.71 0.68 0.62 0.63 0.66 0.73 0.63 0.55 0.59 0.62 0.66 0.63 0.63 0.64 0.56 0.50 0.40 0.36 0.33 0.35 0.37 0.34 0.34 0.35 0.34 0.33 0.34 0.36 0.36 0.39 0.43 0.47 0.47 0.47 0.50 0.52 0.52 0.51 0.51 0.51 0.46 0.43 0.42
0.61 0.56 0.50 0.36 0.51 0.58 0.59 0.51 0.54 0.63 0.64 0.66 0.62 0.61 0.65 0.76 0.63 0.56 0.49 0.55 0.58 0.59 0.59 0.61 0.58 0.50 0.35 0.35 0.33 0.33 0.37 0.35 0.33 0.30 0.34 0.35 0.35 0.36 0.34 0.36 0.40 0.45 0.48 0.43 0.41 0.42 0.43 0.45 0.45 0.44 0.44 0.42 0.42 0.42
0.47 0.50 0.41 0.41 0.40 0.40 0.45 0.48 0.61 0.66 0.67 0.62 0.65 0.72 0.72 0.64 0.57 0.50 0.53 0.58 0.60 0.58 0.56 0.55 0.49 0.38 0.33 0.34 0.29 0.31 0.34 0.39 0.37 0.31 0.33 0.36 0.35 0.31 0.29 0.29 0.33 0.39 0.46 0.44 0.41 0.40 0.41 0.42 0.42 0.41 0.42 0.44 0.44 0.45
0.44 0.34 0.39 0.49 0.45 0.47 0.50 0.60 0.68 0.63 0.59 0.61 0.68 0.65 0.62 0.54 0.53 0.59 0.68 0.69 0.65 0.61 0.60 0.56 0.41 0.35 0.33 0.32 0.36 0.35 0.39 0.41 0.37 0.34 0.35 0.38 0.37 0.34 0.33 0.32 0.34 0.41 0.48 0.47 0.46 0.45 0.45 0.45 0.43 0.43 0.44 0.46 0.47 0.47
0.51 0.41 0.29 0.37 0.41 0.50 0.46 0.53 0.59 0.60 0.70 0.79 0.75 0.64 0.58 0.55 0.56 0.69 0.73 0.73 0.69 0.65 0.55 0.47 0.42 0.38 0.34 0.35 0.38 0.36 0.37 0.40 0.38 0.37 0.37 0.37 0.35 0.35 0.37 0.39 0.44 0.46 0.48 0.48 0.47 0.47 0.46 0.46 0.46 0.46 0.45 0.45 0.46 0.49
0.46 0.45 0.39 0.28 0.32 0.37 0.44 0.50 0.57 0.74 0.83 0.81 0.69 0.66 0.67 0.74 0.82 0.81 0.82 0.74 0.69 0.59 0.52 0.44 0.40 0.40 0.37 0.39 0.41 0.41 0.38 0.36 0.32 0.30 0.29 0.28 0.29 0.31 0.37 0.38 0.39 0.43 0.46 0.42 0.42 0.45 0.48 0.48 0.48 0.47 0.46 0.46 0.47 0.48
0.43 0.44 0.31 0.28 0.26 0.26 0.34 0.50 0.62 0.76 0.83 0.85 0.87 0.85 0.82 0.83 0.90 0.93 0.83 0.72 0.64 0.60 0.59 0.54 0.49 0.46 0.44 0.44 0.44 0.43 0.39 0.38 0.37 0.34 0.31 0.29 0.30 0.33 0.35 0.37 0.37 0.39 0.41 0.42 0.43 0.46 0.49 0.50 0.50 0.50 0.49 0.47 0.47 0.47
0.45 0.36 0.29 0.26 0.22 0.27 0.37 0.51 0.61 0.66 0.70 0.76 0.84 0.80 0.77 0.83 0.86 0.88 0.82 0.77 0.72 0.68 0.64 0.59 0.56 0.56 0.53 0.49 0.45 0.46 0.43 0.38 0.37 0.37 0.38 0.37 0.36 0.34 0.35 0.37 0.39 0.40 0.41 0.42 0.43 0.45 0.46 0.47 0.47 0.48 0.48 0.47 0.47 0.46
0.39 0.32 0.27 0.24 0.27 0.41 0.56 0.57 0.59 0.60 0.67 0.72 0.73 0.82 0.82 0.80 0.74 0.82 0.87 0.80 0.74 0.70 0.68 0.67 0.64 0.66 0.64 0.58 0.51 0.49 0.51 0.47 0.38 0.36 0.38 0.39 0.37 0.37 0.37 0.38 0.39 0.40 0.41 0.42 0.43 0.44 0.45 0.45 0.46 0.47 0.48 0.48 0.47 0.47
0.33 0.27 0.26 0.26 0.32 0.39 0.51 0.52 0.57 0.63 0.73 0.75 0.77 0.80 0.81 0.80 0.76 0.90 0.96 0.94 0.83 0.77 0.75 0.75 0.74 0.73 0.70 0.64 0.56 0.51 0.52 0.50 0.45 0.39 0.37 0.40 0.41 0.39 0.39 0.40 0.40 0.41 0.41 0.41 0.42 0.43 0.44 0.45 0.45 0.47 0.48 0.48 0.47 0.47

GFSWCAN_prec_pwat_078.txt.gz
Precipitable_Water
1.31 1.29 1.27 1.24 1.21 1.27 1.21 1.02 0.84 0.85 0.82 0.73 0.68 0.64 0.60 0.58 0.56 0.58 0.56 0.63 0.54 0.39 0.43 0.44 0.43 0.34 0.33 0.34 0.29 0.31 0.29 0.26 0.25 0.23 0.25 0.24 0.26 0.28 0.27 0.32 0.29 0.28 0.26 0.25 0.26 0.23 0.19 0.39 0.34 0.25 0.40 0.45 0.41 0.40
1.22 1.20 1.21 1.21 1.22 1.21 1.04 0.90 0.80 0.83 0.81 0.74 0.70 0.67 0.62 0.59 0.58 0.56 0.49 0.60 0.64 0.51 0.49 0.55 0.55 0.58 0.53 0.49 0.38 0.35 0.32 0.28 0.27 0.25 0.26 0.26 0.21 0.25 0.24 0.21 0.33 0.27 0.32 0.31 0.29 0.31 0.44 0.40 0.43 0.45 0.44 0.40 0.39 0.38
1.20 1.17 1.19 1.20 1.27 1.21 0.98 0.86 0.85 0.78 0.78 0.74 0.70 0.68 0.66 0.65 0.65 0.63 0.58 0.64 0.63 0.50 0.50 0.47 0.49 0.61 0.68 0.66 0.63 0.40 0.38 0.41 0.35 0.38 0.30 0.29 0.20 0.28 0.19 0.21 0.26 0.29 0.35 0.27 0.30 0.31 0.37 0.42 0.44 0.44 0.42 0.40 0.43 0.43
1.11 1.15 1.17 1.18 1.31 1.26 0.96 0.85 0.85 0.80 0.75 0.74 0.70 0.69 0.68 0.66 0.65 0.65 0.59 0.66 0.63 0.52 0.39 0.46 0.62 0.58 0.68 0.67 0.67 0.61 0.56 0.55 0.51 0.45 0.38 0.35 0.33 0.35 0.30 0.30 0.25 0.30 0.31 0.27 0.28 0.33 0.33 0.40 0.42 0.40 0.39 0.40 0.37 0.38
1.08 1.15 1.16 1.19 1.27 1.25 0.95 0.90 0.81 0.80 0.75 0.70 0.70 0.69 0.69 0.67 0.65 0.70 0.71 0.73 0.77 0.57 0.43 0.48 0.57 0.63 0.69 0.68 0.65 0.62 0.61 0.60 0.57 0.51 0.46 0.43 0.46 0.43 0.43 0.40 0.35 0.40 0.33 0.26 0.23 0.32 0.28 0.31 0.35 0.37 0.34 0.34 0.37 0.37
1.05 1.11 1.15 1.15 1.27 1.20 0.99 0.92 0.80 0.77 0.74 0.69 0.68 0.69 0.69 0.68 0.67 0.67 0.55 0.75 0.82 0.76 0.54 0.42 0.56 0.62 0.68 0.69 0.68 0.65 0.66 0.68 0.65 0.62 0.59 0.61 0.65 0.58 0.52 0.48 0.56 0.58 0.53 0.50 0.43 0.45 0.39 0.39 0.39 0.41 0.38 0.40 0.40 0.40
1.01 1.06 1.11 1.14 1.26 1.22 0.99 0.91 0.80 0.78 0.75 0.71 0.68 0.68 0.69 0.70 0.68 0.56 0.56 0.78 0.88 0.82 0.57 0.45 0.51 0.65 0.69 0.67 0.67 0.68 0.73 0.70 0.68 0.67 0.64 0.64 0.63 0.64 0.55 0.47 0.61 0.66 0.64 0.62 0.64 0.59 0.51 0.45 0.40 0.45 0.46 0.46 0.45 0.46
0.97 1.04 1.10 1.12 1.24 1.18 1.06 0.88 0.80 0.77 0.72 0.71 0.70 0.70 0.71 0.75 0.80 0.73 0.87 0.94 0.89 0.72 0.64 0.47 0.46 0.56 0.68 0.60 0.59 0.72 0.65 0.67 0.67 0.65 0.67 0.62 0.65 0.64 0.49 0.55 0.65 0.66 0.69 0.65 0.65 0.70 0.63 0.62 0.60 0.54 0.53 0.51 0.48 0.49
0.95 1.02 1.09 1.13 1.20 1.13 1.00 0.85 0.79 0.73 0.71 0.73 0.71 0.71 0.75 0.77 0.69 0.73 0.93 0.94 0.94 0.73 0.51 0.49 0.39 0.39 0.64 0.68 0.68 0.66 0.64 0.50 0.62 0.52 0.56 0.60 0.53 0.46 0.50 0.51 0.53 0.56 0.61 0.64 0.68 0.69 0.70 0.64 0.63 0.60 0.56 0.53 0.50 0.51
0.98 1.05 1.09 1.16 1.14 1.05 0.93 0.83 0.76 0.72 0.69 0.69 0.69 0.59 0.54 0.74 0.94 0.91 0.85 0.73 0.72 0.64 0.59 0.48 0.51 0.43 0.51 0.59 0.54 0.51 0.56 0.49 0.42 0.50 0.61 0.50 0.45 0.57 0.53 0.51 0.54 0.59 0.59 0.62 0.59 0.59 0.66 0.64 0.63 0.63 0.59 0.57 0.55 0.55
1.09 1.16 1.19 1.21 1.08 0.99 0.89 0.78 0.76 0.73 0.65 0.61 0.52 0.52 0.78 0.93 0.88 0.77 0.61 0.58 0.59 0.50 0.56 0.55 0.54 0.43 0.62 0.46 0.46 0.52 0.47 0.49 0.38 0.45 0.44 0.38 0.37 0.42 0.50 0.53 0.58 0.60 0.60 0.64 0.66 0.68 0.70 0.67 0.65 0.65 0.64 0.62 0.61 0.60
1.21 1.22 1.20 1.09 1.01 0.98 0.86 0.78 0.74 0.64 0.58 0.62 0.61 0.72 0.86 0.78 0.71 0.61 0.55 0.55 0.51 0.49 0.61 0.50 0.55 0.50 0.55 0.62 0.47 0.51 0.41 0.42 0.36 0.47 0.37 0.29 0.39 0.47 0.49 0.51 0.57 0.57 0.62 0.62 0.61 0.62 0.63 0.61 0.62 0.64 0.65 0.65 0.64 0.64
1.15 1.12 1.08 1.00 0.92 0.85 0.78 0.73 0.70 0.66 0.70 0.61 0.56 0.66 0.67 0.68 0.52 0.51 0.43 0.52 0.53 0.56 0.57 0.57 0.48 0.51 0.57 0.54 0.49 0.49 0.40 0.37 0.46 0.35 0.30 0.35 0.45 0.50 0.53 0.52 0.55 0.58 0.56 0.61 0.65 0.63 0.62 0.62 0.66 0.67 0.65 0.68 0.66 0.64
1.01 0.96 0.91 0.83 0.77 0.78 0.76 0.72 0.67 0.64 0.53 0.41 0.41 0.44 0.53 0.51 0.57 0.55 0.52 0.57 0.61 0.59 0.57 0.48 0.46 0.47 0.51 0.46 0.44 0.37 0.42 0.41 0.29 0.28 0.27 0.37 0.47 0.50 0.54 0.53 0.52 0.54 0.62 0.62 0.63 0.64 0.64 0.66 0.68 0.73 0.69 0.72 0.71 0.67
0.88 0.91 0.87 0.80 0.71 0.69 0.71 0.68 0.70 0.63 0.48 0.37 0.38 0.34 0.53 0.67 0.68 0.67 0.69 0.69 0.64 0.60 0.48 0.45 0.49 0.49 0.45 0.38 0.39 0.35 0.31 0.26 0.28 0.28 0.35 0.47 0.51 0.49 0.45 0.47 0.46 0.46 0.52 0.55 0.60 0.64 0.66 0.66 0.65 0.64 0.68 0.70 0.72 0.72
0.89 0.92 0.82 0.82 0.74 0.69 0.69 0.67 0.64 0.60 0.48 0.39 0.36 0.44 0.65 0.66 0.66 0.68 0.66 0.64 0.62 0.52 0.52 0.46 0.38 0.35 0.33 0.31 0.28 0.27 0.24 0.22 0.30 0.38 0.44 0.50 0.47 0.47 0.49 0.49 0.53 0.57 0.58 0.59 0.61 0.58 0.61 0.65 0.62 0.63 0.69 0.72 0.73 0.73
0.88 0.91 0.94 0.93 0.84 0.72 0.67 0.62 0.56 0.46 0.39 0.36 0.42 0.54 0.61 0.64 0.64 0.66 0.66 0.66 0.65 0.56 0.44 0.36 0.28 0.26 0.30 0.25 0.25 0.29 0.26 0.32 0.40 0.42 0.47 0.48 0.47 0.50 0.52 0.52 0.52 0.52 0.53 0.52 0.46 0.48 0.50 0.53 0.61 0.62 0.58 0.63 0.73 0.75
0.91 0.96 0.96 0.95 0.89 0.70 0.64 0.62 0.53 0.46 0.34 0.38 0.43 0.62 0.77 0.78 0.70 0.66 0.69 0.70 0.62 0.57 0.54 0.47 0.44 0.33 0.24 0.20 0.24 0.33 0.39 0.43 0.46 0.48 0.47 0.52 0.52 0.49 0.47 0.44 0.43 0.44 0.44 0.46 0.47 0.49 0.52 0.58 0.60 0.62 0.62 0.67 0.68 0.73
0.84 0.85 0.95 0.93 0.77 0.58 0.47 0.56 0.57 0.36 0.37 0.47 0.66 0.77 0.79 0.80 0.83 0.81 0.70 0.73 0.71 0.71 0.62 0.58 0.48 0.37 0.36 0.35 0.31 0.34 0.38 0.41 0.43 0.47 0.52 0.53 0.49 0.46 0.42 0.44 0.45 0.43 0.43 0.44 0.44 0.48 0.54 0.56 0.56 0.59 0.67 0.66 0.62 0.66
0.83 0.82 0.86 0.83 0.73 0.56 0.44 0.45 0.63 0.49 0.44 0.60 0.72 0.75 0.80 0.80 0.83 0.81 0.79 0.76 0.70 0.67 0.60 0.54 0.53 0.52 0.45 0.48 0.39 0.36 0.40 0.48 0.47 0.46 0.49 0.46 0.45 0.43 0.41 0.41 0.40 0.41 0.42 0.44 0.51 0.51 0.54 0.56 0.60 0.60 0.61 0.66 0.60 0.62
0.80 0.93 1.00 0.96 0.75 0.62 0.51 0.48 0.47 0.54 0.61 0.57 0.69 0.73 0.76 0.81 0.74 0.74 0.76 0.82 0.72 0.64 0.59 0.64 0.64 0.64 0.62 0.56 0.48 0.44 0.49 0.52 0.48 0.42 0.39 0.37 0.37 0.39 0.41 0.42 0.41 0.40 0.40 0.48 0.50 0.52 0.50 0.54 0.61 0.64 0.65 0.64 0.64 0.64
0.81 0.92 0.97 0.94 0.69 0.61 0.52 0.55 0.45 0.49 0.43 0.48 0.52 0.60 0.56 0.62 0.68 0.76 0.83 0.72 0.66 0.66 0.70 0.69 0.70 0.69 0.62 0.55 0.49 0.49 0.54 0.51 0.44 0.36 0.33 0.33 0.34 0.37 0.38 0.39 0.38 0.39 0.42 0.48 0.50 0.50 0.51 0.52 0.55 0.57 0.55 0.53 0.56 0.55
0.87 0.83 0.84 0.79 0.57 0.50 0.43 0.63 0.47 0.54 0.42 0.49 0.68 0.67 0.67 0.68 0.75 0.80 0.64 0.70 0.72 0.79 0.75 0.72 0.72 0.70 0.64 0.62 0.52 0.48 0.46 0.41 0.37 0.35 0.33 0.34 0.34 0.35 0.37 0.37 0.39 0.42 0.43 0.44 0.49 0.53 0.51 0.50 0.49 0.53 0.54 0.53 0.50 0.47
0.88 0.78 0.67 0.60 0.53 0.40 0.55 0.53 0.62 0.64 0.69 0.67 0.68 0.66 0.70 0.70 0.78 0.68 0.56 0.64 0.68 0.70 0.65 0.66 0.66 0.63 0.61 0.56 0.43 0.39 0.38 0.38 0.36 0.35 0.35 0.36 0.34 0.34 0.35 0.37 0.43 0.46 0.46 0.47 0.49 0.52 0.52 0.48 0.49 0.50 0.47 0.44 0.43 0.43
0.65 0.59 0.56 0.46 0.52 0.47 0.50 0.54 0.50 0.54 0.57 0.69 0.64 0.63 0.68 0.74 0.66 0.63 0.56 0.60 0.63 0.65 0.63 0.63 0.62 0.60 0.52 0.42 0.40 0.37 0.38 0.37 0.34 0.32 0.35 0.38 0.36 0.35 0.35 0.38 0.43 0.46 0.48 0.44 0.43 0.43 0.44 0.47 0.47 0.46 0.43 0.44 0.43 0.42
0.51 0.57 0.50 0.47 0.42 0.39 0.48 0.50 0.53 0.64 0.68 0.65 0.66 0.75 0.73 0.64 0.57 0.56 0.60 0.63 0.64 0.67 0.62 0.59 0.56 0.51 0.44 0.40 0.36 0.35 0.37 0.40 0.37 0.35 0.36 0.38 0.38 0.35 0.32 0.34 0.38 0.40 0.45 0.44 0.43 0.43 0.44 0.45 0.44 0.44 0.45 0.46 0.41 0.46
0.47 0.47 0.51 0.53 0.48 0.47 0.45 0.51 0.64 0.63 0.59 0.59 0.68 0.71 0.68 0.57 0.56 0.65 0.71 0.71 0.71 0.72 0.69 0.63 0.55 0.44 0.41 0.37 0.39 0.42 0.42 0.41 0.39 0.37 0.39 0.40 0.38 0.36 0.35 0.33 0.38 0.42 0.46 0.45 0.45 0.46 0.46 0.45 0.45 0.45 0.46 0.48 0.47 0.47
0.54 0.55 0.40 0.40 0.39 0.41 0.38 0.46 0.54 0.58 0.68 0.77 0.75 0.67 0.59 0.59 0.58 0.74 0.74 0.78 0.80 0.78 0.72 0.63 0.49 0.44 0.42 0.40 0.42 0.43 0.43 0.41 0.39 0.39 0.40 0.40 0.38 0.37 0.40 0.43 0.45 0.45 0.48 0.47 0.47 0.48 0.48 0.49 0.49 0.47 0.46 0.46 0.48 0.50
0.49 0.57 0.47 0.32 0.35 0.37 0.42 0.46 0.51 0.63 0.79 0.78 0.70 0.68 0.72 0.82 0.86 0.83 0.85 0.83 0.83 0.77 0.64 0.58 0.49 0.45 0.44 0.45 0.44 0.43 0.42 0.39 0.36 0.33 0.33 0.33 0.32 0.35 0.40 0.42 0.41 0.45 0.46 0.42 0.40 0.48 0.49 0.50 0.50 0.50 0.49 0.47 0.48 0.49
0.46 0.51 0.40 0.34 0.29 0.27 0.30 0.40 0.49 0.71 0.79 0.80 0.83 0.75 0.76 0.86 0.93 0.99 0.91 0.84 0.77 0.68 0.64 0.61 0.56 0.48 0.46 0.48 0.45 0.42 0.42 0.42 0.40 0.39 0.37 0.35 0.35 0.38 0.40 0.40 0.41 0.43 0.41 0.42 0.44 0.45 0.46 0.51 0.51 0.53 0.50 0.49 0.48 0.48
0.55 0.48 0.41 0.36 0.31 0.31 0.33 0.40 0.52 0.60 0.64 0.61 0.65 0.67 0.71 0.84 0.95 0.97 0.92 0.86 0.81 0.75 0.71 0.66 0.62 0.60 0.59 0.61 0.58 0.51 0.46 0.48 0.44 0.41 0.42 0.41 0.40 0.39 0.40 0.40 0.40 0.41 0.42 0.43 0.44 0.46 0.47 0.48 0.48 0.49 0.48 0.47 0.48 0.47
0.48 0.40 0.33 0.26 0.28 0.38 0.48 0.52 0.55 0.56 0.63 0.68 0.73 0.85 0.86 0.85 0.81 0.89 0.94 0.92 0.85 0.77 0.72 0.74 0.68 0.63 0.65 0.68 0.64 0.60 0.56 0.54 0.52 0.48 0.41 0.40 0.41 0.41 0.43 0.42 0.42 0.42 0.42 0.42 0.43 0.44 0.45 0.47 0.47 0.48 0.47 0.47 0.48 0.48
0.37 0.34 0.32 0.30 0.30 0.35 0.47 0.50 0.51 0.57 0.67 0.73 0.80 0.84 0.85 0.83 0.80 0.94 0.97 0.97 0.90 0.83 0.76 0.76 0.77 0.80 0.77 0.76 0.71 0.69 0.60 0.55 0.55 0.53 0.49 0.43 0.42 0.42 0.43 0.43 0.44 0.44 0.43 0.42 0.42 0.43 0.44 0.45 0.47 0.49 0.49 0.47 0.48 0.48

GFSWCAN_prec_pwat_084.txt.gz
Precipitable_Water
0.96 0.95 1.00 1.13 1.19 1.21 1.10 0.89 0.86 0.80 0.87 0.80 0.70 0.64 0.58 0.54 0.52 0.55 0.63 0.54 0.62 0.61 0.53 0.41 0.38 0.35 0.32 0.43 0.42 0.44 0.34 0.32 0.32 0.35 0.35 0.41 0.35 0.46 0.40 0.42 0.44 0.33 0.29 0.29 0.29 0.31 0.33 0.59 0.52 0.41 0.56 0.61 0.60 0.63
0.92 0.98 1.00 1.09 1.10 1.14 1.13 0.89 0.86 0.77 0.84 0.80 0.71 0.68 0.63 0.60 0.57 0.65 0.63 0.63 0.60 0.68 0.63 0.53 0.53 0.54 0.53 0.51 0.47 0.34 0.38 0.36 0.38 0.37 0.33 0.35 0.27 0.30 0.28 0.27 0.41 0.36 0.46 0.47 0.42 0.46 0.61 0.64 0.62 0.65 0.63 0.58 0.60 0.61
0.92 0.95 0.95 0.98 1.05 1.12 1.17 0.96 0.91 0.81 0.82 0.78 0.71 0.70 0.64 0.60 0.58 0.57 0.59 0.59 0.59 0.58 0.62 0.53 0.55 0.54 0.61 0.58 0.62 0.51 0.53 0.51 0.41 0.44 0.45 0.41 0.27 0.34 0.27 0.28 0.40 0.38 0.44 0.44 0.47 0.55 0.59 0.62 0.66 0.64 0.63 0.59 0.58 0.59
0.91 0.91 0.94 1.00 1.06 1.10 1.18 1.04 0.92 0.84 0.80 0.73 0.72 0.67 0.62 0.59 0.57 0.59 0.64 0.62 0.63 0.67 0.56 0.64 0.77 0.58 0.61 0.64 0.60 0.60 0.58 0.53 0.49 0.41 0.40 0.40 0.40 0.48 0.36 0.41 0.34 0.41 0.45 0.33 0.36 0.48 0.50 0.51 0.55 0.57 0.51 0.52 0.54 0.53
0.89 0.88 0.94 0.99 1.04 1.09 1.17 1.03 0.87 0.86 0.79 0.76 0.70 0.68 0.64 0.62 0.59 0.64 0.71 0.69 0.74 0.75 0.67 0.62 0.63 0.61 0.68 0.66 0.60 0.56 0.55 0.55 0.59 0.53 0.50 0.47 0.56 0.53 0.48 0.41 0.39 0.44 0.38 0.34 0.36 0.48 0.48 0.50 0.56 0.57 0.52 0.46 0.47 0.47
0.86 0.86 0.92 0.98 1.06 1.11 1.13 1.02 0.91 0.87 0.82 0.75 0.69 0.64 0.62 0.62 0.64 0.67 0.60 0.81 0.74 0.72 0.69 0.50 0.75 0.64 0.66 0.66 0.64 0.59 0.64 0.63 0.61 0.56 0.54 0.61 0.68 0.56 0.48 0.48 0.64 0.62 0.63 0.60 0.52 0.59 0.56 0.54 0.53 0.54 0.48 0.45 0.45 0.45
0.88 0.88 0.90 0.96 1.04 1.11 1.03 0.93 0.98 0.89 0.82 0.74 0.68 0.63 0.63 0.65 0.66 0.58 0.67 0.90 0.87 0.71 0.71 0.56 0.59 0.70 0.67 0.68 0.67 0.69 0.72 0.66 0.64 0.60 0.57 0.58 0.57 0.59 0.54 0.47 0.65 0.71 0.73 0.72 0.71 0.68 0.60 0.59 0.53 0.57 0.53 0.51 0.50 0.49
0.91 0.92 0.93 0.98 1.04 1.11 0.96 0.95 1.04 0.85 0.79 0.74 0.69 0.65 0.67 0.74 0.79 0.70 0.84 0.84 0.78 0.75 0.70 0.59 0.63 0.68 0.81 0.62 0.59 0.77 0.65 0.68 0.64 0.59 0.55 0.49 0.51 0.50 0.38 0.48 0.60 0.65 0.68 0.70 0.71 0.74 0.73 0.73 0.70 0.65 0.64 0.63 0.59 0.50
0.92 0.94 0.96 1.00 1.06 1.09 0.92 0.97 0.98 0.83 0.73 0.72 0.68 0.68 0.77 0.76 0.69 0.80 0.81 0.76 0.87 0.83 0.66 0.57 0.50 0.50 0.72 0.73 0.69 0.75 0.70 0.56 0.68 0.53 0.55 0.54 0.44 0.35 0.41 0.47 0.56 0.59 0.60 0.61 0.62 0.62 0.67 0.71 0.74 0.70 0.69 0.64 0.62 0.62
0.97 0.95 0.99 1.07 1.10 1.01 1.00 1.00 0.91 0.78 0.68 0.66 0.66 0.73 0.66 0.79 0.83 0.83 0.81 0.70 0.70 0.61 0.70 0.64 0.57 0.56 0.64 0.66 0.60 0.58 0.61 0.56 0.47 0.56 0.60 0.46 0.40 0.48 0.58 0.60 0.58 0.56 0.55 0.57 0.54 0.55 0.61 0.62 0.60 0.70 0.69 0.69 0.67 0.66
1.09 1.08 1.09 1.16 1.14 1.02 1.05 0.99 0.82 0.74 0.66 0.64 0.69 0.71 0.82 0.83 0.83 0.73 0.65 0.64 0.67 0.64 0.64 0.63 0.60 0.47 0.68 0.40 0.46 0.59 0.53 0.54 0.44 0.53 0.46 0.43 0.36 0.47 0.60 0.53 0.55 0.62 0.60 0.56 0.59 0.62 0.65 0.65 0.64 0.65 0.66 0.69 0.72 0.71
1.14 1.16 1.17 1.17 1.08 1.07 1.00 0.87 0.77 0.69 0.71 0.70 0.71 0.74 0.84 0.76 0.70 0.62 0.61 0.64 0.60 0.56 0.63 0.54 0.60 0.52 0.50 0.49 0.47 0.55 0.50 0.55 0.41 0.52 0.45 0.32 0.42 0.54 0.53 0.49 0.52 0.56 0.60 0.58 0.60 0.58 0.61 0.61 0.63 0.64 0.69 0.71 0.74 0.77
1.11 1.06 1.09 1.11 1.08 1.08 0.94 0.81 0.74 0.68 0.67 0.66 0.67 0.70 0.69 0.68 0.51 0.59 0.52 0.61 0.54 0.61 0.65 0.63 0.59 0.57 0.52 0.51 0.50 0.48 0.44 0.38 0.47 0.42 0.35 0.40 0.55 0.71 0.62 0.55 0.49 0.53 0.56 0.57 0.55 0.57 0.63 0.66 0.67 0.65 0.63 0.66 0.69 0.67
0.91 0.92 0.94 0.95 0.91 0.86 0.82 0.79 0.69 0.66 0.54 0.56 0.58 0.46 0.55 0.54 0.62 0.59 0.60 0.61 0.66 0.58 0.57 0.47 0.49 0.44 0.52 0.45 0.47 0.43 0.44 0.42 0.31 0.34 0.33 0.52 0.63 0.62 0.56 0.52 0.48 0.50 0.53 0.56 0.56 0.65 0.65 0.60 0.69 0.70 0.73 0.72 0.69 0.66
0.88 0.89 0.85 0.80 0.76 0.77 0.77 0.69 0.65 0.64 0.57 0.49 0.47 0.39 0.52 0.72 0.72 0.73 0.62 0.65 0.66 0.56 0.52 0.54 0.57 0.49 0.52 0.46 0.47 0.36 0.32 0.34 0.35 0.37 0.50 0.57 0.60 0.56 0.48 0.46 0.51 0.50 0.51 0.51 0.56 0.58 0.61 0.69 0.70 0.70 0.74 0.75 0.82 0.85
0.91 0.91 0.80 0.77 0.73 0.69 0.67 0.66 0.64 0.64 0.55 0.44 0.41 0.43 0.60 0.64 0.66 0.69 0.69 0.65 0.63 0.59 0.62 0.51 0.43 0.40 0.36 0.38 0.33 0.34 0.31 0.26 0.36 0.43 0.55 0.60 0.60 0.58 0.53 0.47 0.45 0.48 0.46 0.47 0.48 0.48 0.52 0.52 0.50 0.52 0.56 0.65 0.73 0.74
0.90 0.93 0.86 0.84 0.83 0.77 0.67 0.61 0.64 0.52 0.44 0.42 0.38 0.44 0.58 0.73 0.81 0.70 0.77 0.69 0.67 0.59 0.56 0.47 0.38 0.36 0.35 0.32 0.30 0.34 0.33 0.36 0.41 0.48 0.57 0.57 0.52 0.48 0.44 0.43 0.45 0.44 0.46 0.45 0.45 0.43 0.45 0.47 0.51 0.49 0.49 0.56 0.63 0.64
1.00 1.03 0.97 0.94 0.94 0.85 0.75 0.61 0.54 0.50 0.41 0.39 0.37 0.54 0.65 0.73 0.73 0.71 0.77 0.75 0.62 0.61 0.59 0.56 0.54 0.43 0.43 0.34 0.36 0.39 0.38 0.40 0.44 0.49 0.57 0.59 0.56 0.51 0.47 0.41 0.44 0.46 0.45 0.44 0.45 0.47 0.49 0.47 0.47 0.52 0.57 0.61 0.61 0.61
0.90 0.91 0.93 0.95 0.96 0.74 0.65 0.63 0.58 0.42 0.42 0.43 0.47 0.51 0.67 0.71 0.79 0.82 0.95 0.85 0.74 0.65 0.65 0.59 0.53 0.51 0.55 0.57 0.55 0.52 0.40 0.38 0.43 0.56 0.59 0.59 0.54 0.44 0.41 0.43 0.46 0.45 0.44 0.50 0.48 0.42 0.46 0.50 0.54 0.59 0.61 0.61 0.57 0.61
0.89 0.87 0.90 0.85 0.82 0.72 0.68 0.57 0.68 0.49 0.41 0.57 0.55 0.47 0.59 0.78 0.83 0.85 0.81 0.81 0.78 0.72 0.62 0.56 0.58 0.63 0.63 0.69 0.74 0.59 0.51 0.41 0.37 0.42 0.53 0.59 0.55 0.48 0.43 0.42 0.41 0.44 0.51 0.51 0.47 0.45 0.48 0.51 0.55 0.56 0.60 0.58 0.56 0.58
0.91 0.91 0.95 0.93 0.84 0.75 0.67 0.61 0.56 0.52 0.51 0.53 0.58 0.59 0.64 0.73 0.74 0.90 0.77 0.90 0.82 0.75 0.67 0.65 0.74 0.92 0.94 0.81 0.73 0.69 0.65 0.47 0.41 0.45 0.43 0.50 0.52 0.45 0.43 0.46 0.44 0.44 0.44 0.45 0.46 0.49 0.49 0.49 0.53 0.59 0.61 0.60 0.62 0.61
0.97 0.94 0.86 0.98 0.87 0.88 0.71 0.56 0.46 0.61 0.57 0.51 0.48 0.59 0.58 0.57 0.63 0.72 0.80 0.73 0.72 0.71 0.79 0.78 0.81 0.78 0.76 0.75 0.72 0.68 0.69 0.57 0.41 0.37 0.36 0.31 0.36 0.38 0.41 0.41 0.40 0.43 0.47 0.48 0.46 0.48 0.50 0.52 0.53 0.55 0.54 0.58 0.56 0.54
0.99 0.88 0.77 0.85 0.79 0.72 0.54 0.58 0.48 0.52 0.41 0.44 0.49 0.38 0.43 0.56 0.63 0.78 0.69 0.69 0.74 0.84 0.80 0.82 0.88 0.85 0.84 0.80 0.76 0.74 0.66 0.43 0.40 0.41 0.35 0.37 0.42 0.41 0.39 0.40 0.40 0.44 0.47 0.53 0.54 0.50 0.52 0.49 0.52 0.52 0.51 0.55 0.50 0.52
0.99 0.83 0.78 0.73 0.69 0.54 0.56 0.49 0.54 0.52 0.58 0.54 0.50 0.58 0.70 0.75 0.93 0.74 0.59 0.64 0.79 1.00 0.88 0.77 0.73 0.72 0.72 0.71 0.68 0.66 0.56 0.47 0.48 0.44 0.41 0.39 0.39 0.40 0.42 0.41 0.44 0.47 0.47 0.52 0.50 0.50 0.52 0.56 0.48 0.51 0.52 0.48 0.52 0.52
0.70 0.62 0.67 0.61 0.74 0.64 0.46 0.38 0.47 0.50 0.53 0.60 0.67 0.72 0.71 0.95 0.73 0.64 0.64 0.73 0.94 0.94 0.83 0.74 0.71 0.74 0.69 0.70 0.70 0.68 0.59 0.49 0.46 0.42 0.41 0.41 0.43 0.43 0.40 0.43 0.48 0.46 0.50 0.51 0.51 0.50 0.49 0.49 0.49 0.49 0.49 0.46 0.45 0.49
0.60 0.64 0.60 0.61 0.57 0.52 0.43 0.46 0.60 0.57 0.56 0.59 0.67 0.79 0.87 0.71 0.68 0.67 0.70 0.84 0.81 0.83 0.79 0.73 0.70 0.73 0.75 0.74 0.66 0.61 0.54 0.49 0.50 0.45 0.43 0.41 0.44 0.41 0.41 0.41 0.44 0.46 0.47 0.47 0.45 0.47 0.49 0.48 0.46 0.46 0.48 0.46 0.42 0.43
0.56 0.56 0.66 0.72 0.68 0.70 0.57 0.48 0.61 0.60 0.55 0.64 0.74 0.80 0.70 0.54 0.59 0.81 0.92 0.87 0.86 0.80 0.83 0.82 0.78 0.76 0.75 0.74 0.68 0.61 0.54 0.53 0.52 0.50 0.51 0.45 0.45 0.47 0.44 0.41 0.42 0.49 0.50 0.46 0.46 0.47 0.48 0.49 0.50 0.46 0.48 0.49 0.51 0.48
0.65 0.65 0.55 0.61 0.58 0.55 0.39 0.41 0.46 0.51 0.54 0.67 0.75 0.58 0.60 0.64 0.70 0.78 0.94 1.03 0.91 0.89 0.87 0.85 0.82 0.81 0.74 0.68 0.65 0.63 0.55 0.55 0.58 0.55 0.49 0.46 0.45 0.41 0.41 0.45 0.48 0.51 0.51 0.48 0.50 0.50 0.49 0.51 0.52 0.49 0.48 0.49 0.50 0.51
0.63 0.66 0.63 0.58 0.57 0.50 0.44 0.41 0.43 0.47 0.62 0.64 0.75 0.75 0.76 0.84 0.92 0.88 0.91 0.89 0.95 0.87 0.82 0.81 0.77 0.68 0.65 0.66 0.65 0.68 0.60 0.56 0.55 0.48 0.42 0.39 0.38 0.37 0.41 0.45 0.49 0.48 0.46 0.46 0.46 0.47 0.50 0.50 0.50 0.50 0.50 0.49 0.48 0.50
0.63 0.65 0.52 0.51 0.49 0.41 0.40 0.43 0.43 0.51 0.57 0.61 0.70 0.80 0.83 0.89 0.87 0.95 0.97 1.03 1.04 0.95 0.91 0.86 0.74 0.63 0.60 0.62 0.65 0.67 0.66 0.64 0.60 0.50 0.46 0.43 0.45 0.45 0.42 0.43 0.46 0.43 0.46 0.47 0.44 0.43 0.41 0.43 0.49 0.52 0.53 0.51 0.50 0.52
0.63 0.58 0.52 0.48 0.44 0.47 0.49 0.47 0.46 0.43 0.41 0.42 0.48 0.55 0.63 0.81 0.92 1.01 1.04 1.05 0.98 0.91 0.87 0.79 0.71 0.68 0.69 0.70 0.70 0.70 0.68 0.74 0.62 0.53 0.52 0.51 0.52 0.47 0.46 0.43 0.44 0.48 0.50 0.50 0.48 0.48 0.48 0.48 0.51 0.55 0.54 0.53 0.52 0.49
0.52 0.48 0.47 0.42 0.43 0.47 0.47 0.42 0.40 0.41 0.47 0.53 0.68 0.80 0.76 0.87 0.78 0.94 1.00 0.93 0.87 0.85 0.83 0.78 0.75 0.76 0.80 0.81 0.83 0.82 0.80 0.76 0.69 0.62 0.57 0.52 0.49 0.49 0.47 0.44 0.44 0.46 0.46 0.45 0.48 0.50 0.52 0.49 0.49 0.53 0.54 0.52 0.54 0.53
0.54 0.50 0.48 0.44 0.38 0.37 0.44 0.41 0.37 0.41 0.71 0.75 0.80 0.84 0.88 0.86 0.75 0.84 0.95 0.93 0.85 0.83 0.83 0.81 0.81 0.81 0.80 0.82 0.81 0.80 0.82 0.76 0.73 0.61 0.58 0.56 0.55 0.54 0.51 0.46 0.44 0.44 0.44 0.44 0.46 0.48 0.49 0.49 0.47 0.49 0.53 0.56 0.53 0.53

GFSWCAN_prec_pwat_087.txt.gz
Precipitable_Water
0.97 0.94 0.91 0.94 0.97 1.02 1.10 0.95 0.79 0.76 0.78 0.79 0.71 0.65 0.62 0.60 0.55 0.62 0.57 0.69 0.65 0.62 0.51 0.47 0.41 0.44 0.42 0.48 0.39 0.46 0.38 0.35 0.34 0.32 0.36 0.42 0.39 0.51 0.49 0.51 0.45 0.38 0.29 0.31 0.33 0.32 0.30 0.59 0.52 0.44 0.59 0.68 0.77 0.83
0.98 0.92 0.89 0.93 0.95 1.02 1.11 1.04 0.82 0.81 0.79 0.78 0.70 0.65 0.63 0.61 0.59 0.70 0.61 0.65 0.67 0.68 0.57 0.54 0.51 0.50 0.50 0.53 0.45 0.40 0.35 0.41 0.39 0.39 0.37 0.36 0.27 0.26 0.32 0.32 0.46 0.39 0.44 0.40 0.42 0.44 0.61 0.65 0.62 0.67 0.70 0.67 0.70 0.73
0.97 0.93 0.87 0.90 0.94 1.03 1.09 1.11 0.85 0.82 0.78 0.79 0.69 0.65 0.63 0.60 0.57 0.55 0.55 0.62 0.55 0.60 0.64 0.57 0.50 0.58 0.61 0.57 0.57 0.48 0.53 0.52 0.46 0.45 0.45 0.41 0.32 0.36 0.20 0.26 0.36 0.44 0.48 0.50 0.52 0.59 0.60 0.64 0.67 0.68 0.71 0.69 0.71 0.71
0.95 0.94 0.87 0.85 0.94 1.04 1.08 1.15 0.87 0.80 0.80 0.77 0.66 0.63 0.62 0.59 0.55 0.51 0.59 0.63 0.64 0.71 0.59 0.64 0.80 0.64 0.61 0.60 0.58 0.58 0.55 0.54 0.46 0.39 0.35 0.41 0.44 0.53 0.43 0.41 0.32 0.41 0.45 0.38 0.45 0.56 0.61 0.61 0.63 0.62 0.63 0.68 0.65 0.65
0.92 0.91 0.85 0.83 0.92 1.03 1.09 1.11 0.91 0.82 0.81 0.77 0.68 0.63 0.65 0.61 0.57 0.55 0.66 0.67 0.73 0.74 0.61 0.63 0.68 0.66 0.68 0.66 0.60 0.56 0.55 0.56 0.56 0.51 0.48 0.48 0.56 0.54 0.54 0.50 0.49 0.55 0.44 0.38 0.38 0.53 0.53 0.55 0.58 0.58 0.53 0.52 0.55 0.54
0.90 0.90 0.83 0.83 0.91 1.02 1.09 1.01 0.87 0.86 0.87 0.80 0.71 0.66 0.62 0.60 0.62 0.71 0.56 0.73 0.79 0.81 0.74 0.58 0.76 0.67 0.64 0.64 0.64 0.60 0.64 0.62 0.61 0.54 0.53 0.60 0.66 0.58 0.47 0.43 0.60 0.66 0.68 0.66 0.55 0.60 0.59 0.59 0.59 0.62 0.55 0.50 0.47 0.47
0.94 0.91 0.87 0.86 0.93 1.03 1.08 0.84 0.78 0.92 0.87 0.81 0.74 0.68 0.64 0.62 0.70 0.54 0.56 0.82 0.80 0.74 0.73 0.59 0.61 0.76 0.77 0.77 0.67 0.64 0.70 0.66 0.61 0.58 0.55 0.55 0.54 0.54 0.46 0.37 0.56 0.64 0.71 0.71 0.73 0.72 0.63 0.63 0.57 0.58 0.58 0.56 0.52 0.46
0.97 0.92 0.90 0.91 0.96 1.05 1.07 0.79 0.88 0.99 0.82 0.78 0.72 0.66 0.66 0.71 0.75 0.65 0.79 0.83 0.76 0.68 0.76 0.58 0.63 0.71 0.81 0.62 0.64 0.69 0.64 0.67 0.64 0.58 0.56 0.47 0.48 0.46 0.32 0.43 0.50 0.56 0.59 0.63 0.68 0.72 0.71 0.75 0.72 0.68 0.67 0.64 0.59 0.56
0.96 0.92 0.91 0.95 1.00 1.08 1.02 0.82 0.93 0.90 0.79 0.72 0.66 0.75 0.77 0.72 0.65 0.74 0.77 0.71 0.83 0.78 0.63 0.72 0.57 0.52 0.77 0.71 0.71 0.66 0.66 0.53 0.68 0.53 0.53 0.51 0.41 0.31 0.35 0.43 0.50 0.56 0.53 0.52 0.57 0.61 0.65 0.67 0.66 0.70 0.70 0.68 0.65 0.63
0.99 0.99 0.98 1.02 1.07 1.10 0.95 0.89 0.92 0.82 0.75 0.63 0.70 0.75 0.65 0.75 0.81 0.81 0.79 0.64 0.68 0.71 0.73 0.62 0.69 0.57 0.65 0.64 0.53 0.52 0.57 0.52 0.46 0.54 0.60 0.43 0.38 0.45 0.46 0.54 0.54 0.53 0.53 0.54 0.44 0.44 0.53 0.57 0.61 0.63 0.71 0.70 0.71 0.70
1.03 1.02 1.02 1.09 1.09 1.04 0.98 0.99 0.90 0.79 0.71 0.72 0.74 0.68 0.82 0.84 0.80 0.71 0.66 0.65 0.65 0.60 0.61 0.65 0.60 0.51 0.66 0.45 0.47 0.54 0.51 0.59 0.41 0.50 0.42 0.41 0.36 0.51 0.56 0.58 0.55 0.53 0.54 0.54 0.57 0.53 0.53 0.56 0.58 0.63 0.66 0.70 0.66 0.68
1.12 1.10 1.08 1.11 1.05 1.00 1.01 0.94 0.83 0.74 0.75 0.70 0.71 0.75 0.80 0.71 0.67 0.60 0.63 0.65 0.58 0.51 0.61 0.57 0.56 0.54 0.54 0.41 0.44 0.56 0.47 0.53 0.38 0.53 0.44 0.33 0.46 0.59 0.64 0.56 0.55 0.54 0.51 0.51 0.53 0.51 0.53 0.58 0.60 0.58 0.58 0.66 0.70 0.70
1.06 1.08 1.10 1.07 1.06 1.02 0.97 0.86 0.78 0.71 0.66 0.63 0.64 0.63 0.63 0.66 0.50 0.56 0.52 0.57 0.53 0.59 0.63 0.67 0.57 0.57 0.52 0.49 0.46 0.43 0.40 0.39 0.51 0.40 0.38 0.42 0.58 0.61 0.59 0.60 0.53 0.51 0.55 0.58 0.58 0.64 0.68 0.60 0.64 0.63 0.63 0.66 0.66 0.67
0.89 0.97 1.00 1.02 0.98 0.92 0.84 0.80 0.76 0.70 0.54 0.55 0.57 0.47 0.54 0.50 0.62 0.60 0.58 0.56 0.62 0.59 0.58 0.59 0.54 0.48 0.50 0.46 0.45 0.39 0.43 0.43 0.34 0.33 0.36 0.52 0.59 0.61 0.61 0.54 0.50 0.46 0.48 0.51 0.54 0.55 0.56 0.59 0.66 0.68 0.68 0.72 0.71 0.72
0.87 0.87 0.88 0.85 0.83 0.77 0.76 0.74 0.70 0.62 0.57 0.51 0.53 0.39 0.51 0.69 0.80 0.71 0.70 0.68 0.65 0.58 0.52 0.50 0.53 0.49 0.51 0.49 0.47 0.39 0.34 0.33 0.35 0.32 0.41 0.53 0.56 0.56 0.55 0.51 0.48 0.45 0.43 0.43 0.45 0.44 0.46 0.50 0.52 0.54 0.63 0.68 0.71 0.75
0.87 0.87 0.76 0.73 0.73 0.74 0.72 0.70 0.64 0.64 0.55 0.44 0.43 0.44 0.56 0.61 0.67 0.81 0.69 0.65 0.66 0.59 0.60 0.51 0.45 0.41 0.40 0.42 0.37 0.33 0.34 0.28 0.30 0.39 0.47 0.54 0.56 0.56 0.53 0.46 0.43 0.43 0.42 0.43 0.44 0.43 0.42 0.42 0.44 0.47 0.50 0.51 0.53 0.56
0.89 0.91 0.87 0.82 0.81 0.76 0.72 0.58 0.65 0.53 0.44 0.41 0.36 0.47 0.53 0.62 0.67 0.65 0.76 0.81 0.72 0.58 0.55 0.56 0.39 0.37 0.41 0.32 0.33 0.35 0.33 0.38 0.46 0.50 0.57 0.60 0.57 0.54 0.50 0.45 0.41 0.39 0.42 0.41 0.40 0.40 0.46 0.49 0.48 0.45 0.44 0.49 0.54 0.58
0.99 1.01 0.96 0.93 0.88 0.84 0.76 0.61 0.51 0.51 0.41 0.37 0.34 0.49 0.58 0.59 0.66 0.72 0.87 0.85 0.73 0.61 0.59 0.56 0.59 0.47 0.41 0.41 0.39 0.46 0.46 0.51 0.57 0.55 0.54 0.57 0.59 0.56 0.47 0.38 0.39 0.40 0.40 0.42 0.44 0.44 0.45 0.44 0.44 0.45 0.52 0.56 0.55 0.55
0.94 0.85 0.90 0.94 0.95 0.79 0.70 0.69 0.58 0.41 0.41 0.41 0.45 0.51 0.52 0.78 0.80 0.78 0.78 0.83 0.84 0.78 0.69 0.62 0.52 0.47 0.52 0.62 0.61 0.63 0.57 0.56 0.56 0.59 0.59 0.60 0.59 0.53 0.44 0.39 0.43 0.44 0.47 0.49 0.44 0.44 0.46 0.47 0.47 0.51 0.53 0.53 0.51 0.55
0.91 0.89 0.87 0.90 0.81 0.71 0.69 0.69 0.79 0.54 0.36 0.45 0.50 0.49 0.49 0.57 0.61 0.65 0.77 0.85 0.84 0.85 0.67 0.59 0.56 0.57 0.63 0.68 0.69 0.76 0.70 0.58 0.59 0.55 0.51 0.59 0.60 0.53 0.45 0.41 0.43 0.47 0.50 0.50 0.46 0.47 0.46 0.47 0.50 0.53 0.53 0.54 0.52 0.51
0.95 0.98 0.93 0.96 0.82 0.72 0.67 0.71 0.68 0.57 0.49 0.45 0.53 0.57 0.57 0.65 0.63 0.71 0.73 0.86 0.77 0.75 0.68 0.74 0.75 0.77 0.82 0.79 0.71 0.78 0.67 0.65 0.60 0.48 0.50 0.54 0.59 0.50 0.45 0.41 0.41 0.48 0.49 0.48 0.45 0.45 0.47 0.47 0.51 0.55 0.56 0.54 0.53 0.53
0.96 1.02 0.86 0.92 0.78 0.82 0.77 0.76 0.54 0.61 0.51 0.46 0.47 0.52 0.48 0.50 0.61 0.72 0.80 0.71 0.68 0.75 0.79 0.74 0.78 0.81 0.82 0.77 0.80 0.77 0.74 0.71 0.61 0.47 0.39 0.48 0.45 0.45 0.44 0.45 0.45 0.45 0.47 0.49 0.49 0.48 0.45 0.48 0.47 0.53 0.57 0.56 0.58 0.57
0.98 0.92 0.81 0.78 0.76 0.76 0.70 0.79 0.58 0.49 0.35 0.35 0.45 0.46 0.46 0.44 0.50 0.65 0.61 0.72 0.78 0.86 0.94 0.99 0.91 0.88 0.88 0.91 0.85 0.84 0.81 0.68 0.53 0.40 0.35 0.34 0.39 0.45 0.46 0.43 0.41 0.44 0.47 0.51 0.52 0.49 0.47 0.48 0.50 0.49 0.53 0.52 0.57 0.62
1.00 0.80 0.75 0.69 0.70 0.59 0.65 0.56 0.54 0.46 0.46 0.45 0.43 0.45 0.54 0.70 0.81 0.75 0.66 0.78 0.88 0.95 0.93 0.98 0.98 0.91 0.89 0.87 0.79 0.76 0.73 0.60 0.51 0.50 0.43 0.43 0.41 0.41 0.44 0.42 0.43 0.51 0.51 0.51 0.49 0.49 0.52 0.50 0.50 0.51 0.53 0.52 0.53 0.51
0.69 0.62 0.66 0.61 0.77 0.73 0.61 0.50 0.40 0.41 0.37 0.49 0.54 0.58 0.79 0.81 0.75 0.78 0.70 0.83 0.93 0.99 0.95 0.97 1.03 0.81 0.71 0.75 0.79 0.75 0.71 0.50 0.51 0.51 0.51 0.47 0.46 0.44 0.44 0.42 0.45 0.46 0.49 0.50 0.51 0.50 0.50 0.51 0.50 0.49 0.47 0.44 0.42 0.44
0.55 0.62 0.57 0.59 0.60 0.55 0.53 0.48 0.52 0.52 0.53 0.53 0.63 0.73 0.81 0.75 0.69 0.63 0.74 0.90 0.91 0.92 0.84 0.87 0.90 0.83 0.79 0.83 0.83 0.82 0.79 0.70 0.56 0.53 0.55 0.55 0.51 0.45 0.43 0.41 0.42 0.44 0.49 0.50 0.48 0.46 0.48 0.47 0.46 0.45 0.45 0.46 0.44 0.44
0.53 0.58 0.67 0.70 0.68 0.67 0.61 0.58 0.59 0.58 0.57 0.56 0.67 0.71 0.76 0.61 0.63 0.75 0.84 0.91 0.91 0.96 1.05 1.14 1.07 0.86 0.82 0.84 0.88 0.86 0.81 0.72 0.64 0.57 0.63 0.62 0.53 0.49 0.49 0.45 0.43 0.47 0.51 0.48 0.46 0.46 0.46 0.47 0.49 0.47 0.46 0.49 0.50 0.48
0.62 0.65 0.55 0.62 0.65 0.66 0.55 0.54 0.43 0.46 0.57 0.72 0.69 0.63 0.62 0.64 0.70 0.95 1.02 1.05 1.08 1.12 1.09 1.08 0.94 0.86 0.83 0.81 0.80 0.76 0.73 0.72 0.71 0.64 0.68 0.64 0.54 0.50 0.50 0.48 0.49 0.50 0.51 0.50 0.48 0.47 0.48 0.49 0.50 0.51 0.50 0.49 0.50 0.51
0.60 0.67 0.68 0.61 0.63 0.63 0.60 0.50 0.41 0.45 0.53 0.57 0.62 0.67 0.71 0.84 0.92 1.03 1.13 1.13 1.12 1.00 0.90 0.92 1.04 0.82 0.77 0.75 0.73 0.73 0.72 0.74 0.67 0.59 0.61 0.49 0.44 0.41 0.44 0.45 0.46 0.47 0.49 0.47 0.48 0.50 0.48 0.48 0.48 0.49 0.51 0.49 0.47 0.48
0.59 0.69 0.61 0.60 0.57 0.53 0.53 0.52 0.47 0.50 0.55 0.55 0.67 0.75 0.82 0.88 1.02 1.09 1.01 0.94 0.89 0.89 0.94 0.94 0.95 0.80 0.68 0.65 0.66 0.68 0.72 0.72 0.70 0.66 0.57 0.50 0.49 0.51 0.47 0.46 0.46 0.43 0.45 0.45 0.43 0.40 0.42 0.45 0.44 0.44 0.48 0.53 0.54 0.52
0.71 0.66 0.60 0.57 0.52 0.53 0.53 0.58 0.59 0.56 0.52 0.56 0.65 0.63 0.67 0.78 0.89 0.99 0.94 0.91 0.89 0.83 0.79 0.75 0.69 0.69 0.67 0.72 0.68 0.65 0.65 0.73 0.70 0.67 0.67 0.63 0.54 0.54 0.49 0.49 0.48 0.43 0.45 0.50 0.46 0.45 0.45 0.46 0.45 0.48 0.52 0.56 0.56 0.53
0.64 0.56 0.51 0.47 0.48 0.52 0.54 0.52 0.50 0.47 0.55 0.60 0.64 0.72 0.77 0.82 0.78 0.86 0.92 0.85 0.79 0.77 0.77 0.75 0.66 0.65 0.70 0.70 0.70 0.71 0.71 0.68 0.68 0.68 0.64 0.57 0.51 0.54 0.53 0.50 0.46 0.45 0.48 0.51 0.49 0.48 0.49 0.51 0.51 0.50 0.51 0.54 0.56 0.57
0.58 0.55 0.47 0.45 0.47 0.50 0.54 0.53 0.48 0.52 0.60 0.63 0.71 0.79 0.84 0.78 0.69 0.72 0.81 0.78 0.74 0.73 0.73 0.71 0.71 0.71 0.71 0.70 0.71 0.73 0.74 0.71 0.69 0.66 0.64 0.57 0.55 0.54 0.55 0.54 0.48 0.45 0.46 0.46 0.45 0.47 0.48 0.51 0.52 0.50 0.49 0.53 0.56 0.56